DLH8PM EDDF-KSFO

Flight info

Callsign DLH8PM
Flight time 12h 34m
Altitude 32000
Route OBOKA3D/07C OBOKA Z29 TORNU DCT MIMVA DCT GETNO DCT NIBOG/N0490F340 DCT ETARI/M083F340 NATD PELTU/N0480F360 N596B MIILS Q907 SIKBO Q905 HOCKE Q824 FNT/N0474F380 J36 DUTYS J16 MCW J148 ONL J94 OCS J154 TCH J56 MVA MOD9
Aircraft A346/H-SDE2E3FGHIJ3J4J5M1RWXY/LB1D1

Departure

Time 2026-04-15 09:51
Airport Frankfurt Main Airport (EDDF)

Arrival

Time 2026-04-15 22:25
Airport San Francisco International Airport (KSFO)
Time Latitude Longitude Altitude Speed Heading
2026-04-15 09:17 50.04586 8.56603 364 ft 0 kts 115°
2026-04-15 09:33 50.04588 8.56595 369 ft 4 kts 114°
2026-04-15 09:34 50.04599 8.56558 368 ft 4 kts 117°
2026-04-15 09:34 50.04612 8.56524 369 ft 4 kts 129°
2026-04-15 09:34 50.04628 8.56503 371 ft 4 kts 161°
2026-04-15 09:34 50.04637 8.56501 368 ft 2 kts 204°
2026-04-15 09:35 50.04624 8.56492 370 ft 4 kts 204°
2026-04-15 09:35 50.04600 8.56475 366 ft 3 kts 205°
2026-04-15 09:35 50.04596 8.56472 367 ft 0 kts 205°
2026-04-15 09:37 50.04597 8.56472 367 ft 0 kts 205°
2026-04-15 09:40 50.04592 8.56469 364 ft 3 kts 205°
2026-04-15 09:41 50.04566 8.56451 366 ft 5 kts 205°
2026-04-15 09:41 50.04529 8.56408 371 ft 9 kts 231°
2026-04-15 09:41 50.04499 8.56306 370 ft 11 kts 249°
2026-04-15 09:41 50.04469 8.56184 370 ft 12 kts 249°
2026-04-15 09:42 50.04440 8.56063 368 ft 8 kts 248°
2026-04-15 09:42 50.04406 8.56025 371 ft 5 kts 178°
2026-04-15 09:42 50.04378 8.56039 370 ft 3 kts 161°
2026-04-15 09:42 50.04374 8.56041 369 ft 2 kts 161°
2026-04-15 09:43 50.04357 8.56050 368 ft 0 kts 161°
2026-04-15 09:43 50.04356 8.56050 368 ft 0 kts 161°
2026-04-15 09:43 50.04347 8.56055 366 ft 3 kts 160°
2026-04-15 09:43 50.04320 8.56074 368 ft 6 kts 146°
2026-04-15 09:44 50.04297 8.56145 369 ft 9 kts 90°
2026-04-15 09:44 50.04264 8.56222 364 ft 10 kts 155°
2026-04-15 09:44 50.04199 8.56264 363 ft 9 kts 160°
2026-04-15 09:44 50.04145 8.56279 366 ft 8 kts 200°
2026-04-15 09:45 50.04107 8.56190 366 ft 12 kts 248°
2026-04-15 09:45 50.04074 8.56056 364 ft 16 kts 250°
2026-04-15 09:45 50.04032 8.55879 363 ft 18 kts 249°
2026-04-15 09:45 50.03988 8.55697 358 ft 18 kts 249°
2026-04-15 09:46 50.03943 8.55508 359 ft 18 kts 250°
2026-04-15 09:46 50.03898 8.55320 361 ft 18 kts 250°
2026-04-15 09:46 50.03853 8.55133 363 ft 19 kts 249°
2026-04-15 09:46 50.03807 8.54941 362 ft 19 kts 249°
2026-04-15 09:47 50.03760 8.54749 361 ft 19 kts 249°
2026-04-15 09:47 50.03715 8.54568 360 ft 13 kts 250°
2026-04-15 09:47 50.03682 8.54425 359 ft 13 kts 250°
2026-04-15 09:47 50.03661 8.54342 357 ft 6 kts 243°
2026-04-15 09:48 50.03618 8.54314 356 ft 9 kts 178°
2026-04-15 09:48 50.03595 8.54321 355 ft 1 kts 161°
2026-04-15 09:48 50.03582 8.54329 358 ft 3 kts 158°
2026-04-15 09:48 50.03556 8.54346 354 ft 5 kts 158°
2026-04-15 09:49 50.03540 8.54356 358 ft 0 kts 158°
2026-04-15 09:49 50.03520 8.54370 360 ft 5 kts 150°
2026-04-15 09:49 50.03498 8.54421 356 ft 6 kts 100°
2026-04-15 09:49 50.03506 8.54482 356 ft 0 kts 67°
2026-04-15 09:50 50.03506 8.54483 360 ft 1 kts 66°
2026-04-15 09:50 50.03528 8.54568 360 ft 29 kts 69°
2026-04-15 09:50 50.03669 8.55164 355 ft 86 kts 70°
2026-04-15 09:50 50.03936 8.56281 366 ft 135 kts 70°
2026-04-15 09:51 50.04316 8.57872 376 ft 175 kts 69°
2026-04-15 09:51 50.04776 8.59762 647 ft 190 kts 67°
2026-04-15 09:51 50.05261 8.61684 1151 ft 196 kts 68°
2026-04-15 09:51 50.05755 8.63697 1709 ft 199 kts 71°
2026-04-15 09:52 50.06187 8.65757 2277 ft 200 kts 73°
2026-04-15 09:52 50.06622 8.67897 2553 ft 213 kts 73°
2026-04-15 09:52 50.07138 8.70090 2847 ft 224 kts 59°
2026-04-15 09:52 50.08254 8.71805 3323 ft 230 kts 28°
2026-04-15 09:53 50.09780 8.72879 3634 ft 244 kts 24°
2026-04-15 09:53 50.11404 8.73931 3911 ft 258 kts 24°
2026-04-15 09:53 50.13060 8.75012 4329 ft 265 kts 24°
2026-04-15 09:53 50.14783 8.76154 4798 ft 271 kts 24°
2026-04-15 09:54 50.16533 8.77325 5388 ft 274 kts 25°
2026-04-15 09:54 50.18307 8.78525 5956 ft 277 kts 24°
2026-04-15 09:54 50.20072 8.79725 6507 ft 282 kts 24°
2026-04-15 09:54 50.21897 8.80965 7043 ft 287 kts 24°
2026-04-15 09:55 50.23760 8.82210 7591 ft 291 kts 20°
2026-04-15 09:55 50.25757 8.82644 8133 ft 293 kts 349°
2026-04-15 09:55 50.27619 8.81514 8696 ft 292 kts 321°
2026-04-15 09:55 50.28947 8.79137 9244 ft 291 kts 293°
2026-04-15 09:56 50.29641 8.76148 9805 ft 293 kts 286°
2026-04-15 09:56 50.30262 8.73072 10344 ft 296 kts 287°
2026-04-15 09:56 50.31598 8.66739 10958 ft 320 kts 288°
2026-04-15 09:57 50.32410 8.63401 11189 ft 334 kts 294°
2026-04-15 09:57 50.33492 8.60082 11443 ft 347 kts 297°
2026-04-15 09:57 50.34654 8.56718 11689 ft 361 kts 297°
2026-04-15 09:57 50.35869 8.53178 11943 ft 373 kts 297°
2026-04-15 09:58 50.37097 8.49549 12427 ft 378 kts 297°
2026-04-15 09:58 50.38327 8.45877 13073 ft 379 kts 297°
2026-04-15 09:58 50.39532 8.42252 13700 ft 380 kts 296°
2026-04-15 09:58 50.40752 8.38561 14294 ft 382 kts 296°
2026-04-15 09:59 50.41982 8.34824 14807 ft 384 kts 296°
2026-04-15 09:59 50.43217 8.31061 15290 ft 388 kts 296°
2026-04-15 09:59 50.44456 8.27279 15749 ft 391 kts 296°
2026-04-15 09:59 50.45690 8.23505 16239 ft 394 kts 296°
2026-04-15 10:00 50.46950 8.19644 16728 ft 397 kts 296°
2026-04-15 10:00 50.48221 8.15746 17196 ft 400 kts 296°
2026-04-15 10:00 50.49496 8.11827 17700 ft 403 kts 297°
2026-04-15 10:00 50.50766 8.07919 18162 ft 406 kts 297°
2026-04-15 10:01 50.52055 8.03943 18616 ft 409 kts 297°
2026-04-15 10:01 50.53355 7.99931 19019 ft 412 kts 297°
2026-04-15 10:01 50.54646 7.95939 19424 ft 414 kts 297°
2026-04-15 10:01 50.55964 7.91856 19838 ft 417 kts 297°
2026-04-15 10:02 50.57286 7.87757 20268 ft 419 kts 296°
2026-04-15 10:02 50.58592 7.83698 20707 ft 420 kts 296°
2026-04-15 10:02 50.59919 7.79565 21102 ft 423 kts 297°
2026-04-15 10:02 50.61255 7.75399 21506 ft 425 kts 297°
2026-04-15 10:03 50.62580 7.71261 21892 ft 428 kts 297°
2026-04-15 10:03 50.63926 7.67051 22309 ft 430 kts 297°
2026-04-15 10:03 50.65277 7.62816 22717 ft 432 kts 297°
2026-04-15 10:03 50.66631 7.58568 23119 ft 434 kts 297°
2026-04-15 10:04 50.67994 7.54282 23503 ft 436 kts 297°
2026-04-15 10:04 50.69345 7.50027 23859 ft 439 kts 297°
2026-04-15 10:04 50.70723 7.45679 24160 ft 441 kts 297°
2026-04-15 10:04 50.72104 7.41316 24473 ft 443 kts 297°
2026-04-15 10:05 50.73465 7.37001 24799 ft 444 kts 297°
2026-04-15 10:05 50.74860 7.32592 25135 ft 446 kts 297°
2026-04-15 10:05 50.76265 7.28258 25457 ft 447 kts 297°
2026-04-15 10:05 50.77698 7.23880 25786 ft 448 kts 298°
2026-04-15 10:06 50.79143 7.19466 26111 ft 450 kts 298°
2026-04-15 10:06 50.80565 7.15105 26424 ft 451 kts 298°
2026-04-15 10:06 50.82010 7.10663 26741 ft 452 kts 298°
2026-04-15 10:06 50.83459 7.06195 27054 ft 454 kts 297°
2026-04-15 10:07 50.84906 7.01727 27333 ft 455 kts 297°
2026-04-15 10:07 50.86333 6.97305 27614 ft 457 kts 297°
2026-04-15 10:07 50.87792 6.92774 27893 ft 459 kts 297°
2026-04-15 10:07 50.89247 6.88244 28194 ft 460 kts 297°
2026-04-15 10:08 50.90692 6.83741 28503 ft 462 kts 297°
2026-04-15 10:08 50.92152 6.79183 28831 ft 462 kts 297°
2026-04-15 10:08 50.93609 6.74628 29281 ft 460 kts 297°
2026-04-15 10:08 50.95055 6.70098 29745 ft 457 kts 297°
2026-04-15 10:09 50.96479 6.65631 30177 ft 455 kts 297°
2026-04-15 10:09 50.97911 6.61131 30536 ft 454 kts 297°
2026-04-15 10:09 50.99326 6.56688 30804 ft 454 kts 297°
2026-04-15 10:09 51.00750 6.52204 31008 ft 455 kts 297°
2026-04-15 10:10 51.02180 6.47684 31237 ft 456 kts 297°
2026-04-15 10:10 51.03589 6.43222 31481 ft 457 kts 297°
2026-04-15 10:10 51.05018 6.38691 31743 ft 457 kts 297°
2026-04-15 10:10 51.06448 6.34149 31981 ft 457 kts 297°
2026-04-15 10:11 51.07864 6.29644 32192 ft 458 kts 297°
2026-04-15 10:11 51.10720 6.20527 32204 ft 458 kts 297°
2026-04-15 10:12 51.13320 6.11303 32204 ft 459 kts 291°
2026-04-15 10:12 51.15349 6.01610 32207 ft 459 kts 287°
2026-04-15 10:13 51.17510 5.92052 32203 ft 459 kts 295°
2026-04-15 10:13 51.20654 5.83259 32199 ft 459 kts 305°
2026-04-15 10:14 51.24806 5.75521 32187 ft 460 kts 315°
2026-04-15 10:14 51.29732 5.68925 32180 ft 463 kts 320°
2026-04-15 10:15 51.34795 5.62574 32185 ft 464 kts 320°
2026-04-15 10:15 51.39885 5.56179 32206 ft 464 kts 320°
2026-04-15 10:16 51.44934 5.49807 32229 ft 464 kts 320°
2026-04-15 10:16 51.50009 5.43382 32216 ft 463 kts 320°
2026-04-15 10:17 51.55046 5.36983 32211 ft 463 kts 320°
2026-04-15 10:17 51.60089 5.30557 32198 ft 463 kts 320°
2026-04-15 10:18 51.65171 5.24070 32182 ft 466 kts 319°
2026-04-15 10:18 51.70227 5.17584 32197 ft 466 kts 319°
2026-04-15 10:19 51.75283 5.11082 32187 ft 465 kts 319°
2026-04-15 10:19 51.80358 5.04535 32179 ft 465 kts 319°
2026-04-15 10:20 51.85390 4.98026 32178 ft 465 kts 319°
2026-04-15 10:20 51.90455 4.91456 32172 ft 465 kts 319°
2026-04-15 10:21 51.95487 4.84910 32176 ft 465 kts 319°
2026-04-15 10:21 52.00539 4.78322 32168 ft 465 kts 319°
2026-04-15 10:22 52.05556 4.71753 32176 ft 465 kts 318°
2026-04-15 10:22 52.10588 4.65148 32165 ft 465 kts 318°
2026-04-15 10:23 52.15646 4.58488 32161 ft 465 kts 318°
2026-04-15 10:23 52.20660 4.51867 32173 ft 465 kts 318°
2026-04-15 10:24 52.25673 4.45228 32161 ft 465 kts 318°
2026-04-15 10:24 52.30709 4.38537 32159 ft 465 kts 318°
2026-04-15 10:25 52.35704 4.31881 32159 ft 465 kts 318°
2026-04-15 10:25 52.40701 4.25202 32157 ft 465 kts 318°
2026-04-15 10:26 52.45730 4.18461 32171 ft 465 kts 318°
2026-04-15 10:26 52.50712 4.11763 32159 ft 464 kts 318°
2026-04-15 10:27 52.55710 4.05022 32156 ft 464 kts 318°
2026-04-15 10:27 52.60707 3.98263 32154 ft 464 kts 317°
2026-04-15 10:28 52.65696 3.91500 32152 ft 466 kts 317°
2026-04-15 10:28 52.70699 3.84686 32165 ft 467 kts 317°
2026-04-15 10:29 52.75703 3.77853 32136 ft 466 kts 317°
2026-04-15 10:29 52.80685 3.71029 32132 ft 466 kts 317°
2026-04-15 10:30 52.85695 3.64149 32132 ft 466 kts 317°
2026-04-15 10:30 52.90664 3.57305 32117 ft 466 kts 317°
2026-04-15 10:31 52.95680 3.50382 32136 ft 469 kts 316°
2026-04-15 10:31 53.00691 3.43429 32105 ft 470 kts 316°
2026-04-15 10:32 53.05364 3.35970 32100 ft 465 kts 307°
2026-04-15 10:32 53.09109 3.27251 32105 ft 460 kts 297°
2026-04-15 10:33 53.11795 3.17691 32093 ft 456 kts 287°
2026-04-15 10:33 53.13543 3.07498 32092 ft 455 kts 282°
2026-04-15 10:34 53.15071 2.97310 32106 ft 456 kts 281°
2026-04-15 10:34 53.16601 2.86997 32103 ft 457 kts 281°
2026-04-15 10:35 53.18120 2.76733 32096 ft 456 kts 281°
2026-04-15 10:35 53.19635 2.66463 32096 ft 456 kts 281°
2026-04-15 10:36 53.21142 2.56185 32089 ft 456 kts 281°
2026-04-15 10:36 53.22659 2.45810 32091 ft 458 kts 280°
2026-04-15 10:37 53.24149 2.35504 32077 ft 458 kts 280°
2026-04-15 10:37 53.25633 2.25167 32065 ft 458 kts 280°
2026-04-15 10:38 53.27107 2.14844 32065 ft 458 kts 280°
2026-04-15 10:38 53.28342 2.06147 32064 ft 458 kts 280°
2026-04-15 10:39 53.29811 1.95775 32060 ft 460 kts 279°
2026-04-15 10:39 53.31266 1.85370 32056 ft 460 kts 279°
2026-04-15 10:40 53.32711 1.74966 32045 ft 460 kts 279°
2026-04-15 10:40 53.34156 1.64505 32045 ft 460 kts 279°
2026-04-15 10:41 53.35596 1.54011 32060 ft 460 kts 279°
2026-04-15 10:41 53.37028 1.43551 32036 ft 461 kts 278°
2026-04-15 10:42 53.38446 1.33040 32030 ft 461 kts 278°
2026-04-15 10:42 53.39848 1.22587 32023 ft 461 kts 278°
2026-04-15 10:43 53.41255 1.12037 32024 ft 461 kts 278°
2026-04-15 10:43 53.42643 1.01554 32036 ft 461 kts 277°
2026-04-15 10:44 53.44032 0.91032 32015 ft 462 kts 277°
2026-04-15 10:44 53.45401 0.80513 32005 ft 462 kts 277°
2026-04-15 10:45 53.46760 0.70001 31994 ft 462 kts 277°
2026-04-15 10:45 53.48118 0.59424 31990 ft 462 kts 276°
2026-04-15 10:46 53.49463 0.48893 32017 ft 463 kts 276°
2026-04-15 10:46 53.50813 0.38259 31985 ft 464 kts 275°
2026-04-15 10:47 53.52139 0.27670 31984 ft 464 kts 275°
2026-04-15 10:47 53.53468 0.17001 31970 ft 464 kts 275°
2026-04-15 10:48 53.54782 0.06372 31979 ft 464 kts 275°
2026-04-15 10:48 53.56086 -0.04202 32034 ft 465 kts 274°
2026-04-15 10:49 53.57397 -0.14950 31980 ft 468 kts 274°
2026-04-15 10:49 53.58686 -0.25663 31968 ft 468 kts 274°
2026-04-15 10:50 53.59974 -0.36437 31967 ft 468 kts 274°
2026-04-15 10:50 53.61253 -0.47207 31965 ft 468 kts 274°
2026-04-15 10:51 53.62512 -0.57891 31969 ft 468 kts 274°
2026-04-15 10:51 53.63775 -0.68692 31968 ft 468 kts 273°
2026-04-15 10:52 53.65027 -0.79488 31960 ft 467 kts 273°
2026-04-15 10:52 53.66264 -0.90246 31945 ft 468 kts 273°
2026-04-15 10:53 53.67488 -1.00979 31943 ft 467 kts 273°
2026-04-15 10:53 53.68715 -1.11809 31949 ft 467 kts 273°
2026-04-15 10:54 53.69918 -1.22547 31935 ft 467 kts 272°
2026-04-15 10:54 53.71119 -1.33359 31919 ft 467 kts 272°
2026-04-15 10:55 53.72311 -1.44180 31915 ft 467 kts 272°
2026-04-15 10:55 53.73486 -1.54944 31921 ft 467 kts 272°
2026-04-15 10:56 53.74662 -1.65767 31924 ft 469 kts 272°
2026-04-15 10:56 53.75826 -1.76634 31911 ft 470 kts 272°
2026-04-15 10:57 53.76987 -1.87561 31896 ft 470 kts 272°
2026-04-15 10:57 53.78702 -2.03875 31888 ft 469 kts 271°
2026-04-15 10:58 53.79835 -2.14748 31909 ft 472 kts 271°
2026-04-15 10:58 53.80960 -2.25686 31889 ft 474 kts 271°
2026-04-15 10:59 53.82088 -2.36758 31882 ft 474 kts 271°
2026-04-15 10:59 53.83196 -2.47725 31879 ft 474 kts 271°
2026-04-15 11:00 53.84296 -2.58721 31874 ft 474 kts 271°
2026-04-15 11:00 53.85397 -2.69787 31895 ft 476 kts 270°
2026-04-15 11:01 53.86488 -2.80929 31871 ft 477 kts 270°
2026-04-15 11:01 53.87563 -2.92005 31859 ft 477 kts 270°
2026-04-15 11:02 53.88629 -3.03077 31857 ft 477 kts 270°
2026-04-15 11:02 53.89692 -3.14246 31858 ft 477 kts 270°
2026-04-15 11:03 53.90745 -3.25377 31870 ft 478 kts 269°
2026-04-15 11:03 53.91781 -3.36526 31854 ft 479 kts 269°
2026-04-15 11:04 53.92945 -3.47710 31848 ft 484 kts 272°
2026-04-15 11:04 53.94748 -3.58833 31831 ft 492 kts 278°
2026-04-15 11:05 53.96902 -3.69919 31898 ft 493 kts 278°
2026-04-15 11:05 53.99067 -3.81007 31831 ft 496 kts 278°
2026-04-15 11:06 54.01224 -3.92170 31825 ft 496 kts 278°
2026-04-15 11:06 54.03358 -4.03299 31814 ft 496 kts 278°
2026-04-15 11:07 54.05502 -4.14557 31800 ft 496 kts 278°
2026-04-15 11:07 54.07617 -4.25738 31843 ft 497 kts 278°
2026-04-15 11:08 54.09724 -4.36964 31882 ft 502 kts 278°
2026-04-15 11:08 54.10788 -4.42645 32211 ft 499 kts 278°
2026-04-15 11:08 54.11846 -4.48290 32575 ft 497 kts 278°
2026-04-15 11:09 54.12896 -4.53919 32911 ft 495 kts 278°
2026-04-15 11:09 54.13926 -4.59466 33187 ft 494 kts 278°
2026-04-15 11:09 54.14965 -4.65085 33488 ft 494 kts 278°
2026-04-15 11:09 54.16000 -4.70701 33749 ft 493 kts 278°
2026-04-15 11:10 54.18052 -4.81897 33801 ft 495 kts 278°
2026-04-15 11:10 54.20095 -4.93104 33762 ft 496 kts 278°
2026-04-15 11:11 54.22140 -5.04363 33759 ft 496 kts 278°
2026-04-15 11:11 54.24185 -5.15698 33741 ft 496 kts 278°
2026-04-15 11:12 54.26204 -5.26968 33738 ft 496 kts 278°
2026-04-15 11:12 54.28211 -5.38268 33759 ft 497 kts 278°
2026-04-15 11:13 54.30219 -5.49623 33734 ft 497 kts 278°
2026-04-15 11:13 54.32214 -5.60949 33725 ft 497 kts 278°
2026-04-15 11:14 54.34195 -5.72279 33714 ft 497 kts 278°
2026-04-15 11:14 54.36178 -5.83699 33716 ft 497 kts 278°
2026-04-15 11:15 54.38133 -5.95025 33706 ft 497 kts 278°
2026-04-15 11:15 54.40089 -6.06442 33699 ft 497 kts 278°
2026-04-15 11:16 54.42038 -6.17890 33693 ft 497 kts 277°
2026-04-15 11:16 54.43961 -6.29256 33692 ft 497 kts 277°
2026-04-15 11:17 54.45888 -6.40721 33692 ft 497 kts 277°
2026-04-15 11:17 54.47787 -6.52124 33700 ft 496 kts 278°
2026-04-15 11:18 54.49676 -6.63499 33675 ft 496 kts 278°
2026-04-15 11:18 54.51574 -6.75001 33660 ft 496 kts 278°
2026-04-15 11:19 54.53443 -6.86412 33663 ft 496 kts 278°
2026-04-15 11:19 54.55301 -6.97837 33661 ft 496 kts 277°
2026-04-15 11:20 54.57156 -7.09365 33667 ft 497 kts 278°
2026-04-15 11:20 54.58997 -7.20817 33644 ft 497 kts 278°
2026-04-15 11:21 54.60838 -7.32358 33644 ft 497 kts 278°
2026-04-15 11:21 54.62658 -7.43851 33640 ft 497 kts 278°
2026-04-15 11:22 54.64474 -7.55407 33636 ft 497 kts 278°
2026-04-15 11:22 54.66275 -7.66963 33636 ft 497 kts 278°
2026-04-15 11:23 54.68067 -7.78525 33627 ft 497 kts 278°
2026-04-15 11:23 54.69842 -7.90050 33624 ft 497 kts 278°
2026-04-15 11:24 54.71604 -8.01575 33611 ft 497 kts 278°
2026-04-15 11:24 54.73078 -8.11284 33614 ft 497 kts 277°
2026-04-15 11:25 54.74815 -8.22835 33624 ft 497 kts 278°
2026-04-15 11:25 54.76552 -8.34422 33601 ft 497 kts 278°
2026-04-15 11:26 54.78277 -8.46010 33597 ft 497 kts 278°
2026-04-15 11:26 54.79996 -8.57655 33594 ft 497 kts 278°
2026-04-15 11:27 54.81696 -8.69260 33597 ft 497 kts 277°
2026-04-15 11:27 54.83381 -8.80882 33611 ft 498 kts 278°
2026-04-15 11:28 54.85074 -8.92599 33596 ft 498 kts 278°
2026-04-15 11:28 54.86746 -9.04254 33589 ft 498 kts 278°
2026-04-15 11:29 54.88410 -9.15951 33593 ft 498 kts 277°
2026-04-15 11:29 54.90064 -9.27674 33584 ft 497 kts 277°
2026-04-15 11:30 54.91696 -9.39354 33591 ft 498 kts 278°
2026-04-15 11:30 54.93322 -9.51040 33586 ft 498 kts 278°
2026-04-15 11:31 54.94937 -9.62739 33578 ft 498 kts 277°
2026-04-15 11:31 54.96551 -9.74526 33568 ft 498 kts 277°
2026-04-15 11:32 54.98145 -9.86264 33615 ft 498 kts 277°
2026-04-15 11:32 54.99729 -9.98057 33579 ft 497 kts 277°
2026-04-15 11:33 55.01211 -10.09784 33563 ft 496 kts 276°
2026-04-15 11:33 55.02610 -10.21531 33561 ft 495 kts 276°
2026-04-15 11:34 55.04011 -10.33358 33548 ft 495 kts 276°
2026-04-15 11:34 55.05401 -10.45127 33592 ft 495 kts 276°
2026-04-15 11:35 55.06776 -10.56868 33554 ft 494 kts 276°
2026-04-15 11:35 55.08153 -10.68706 33543 ft 496 kts 276°
2026-04-15 11:36 55.09513 -10.80497 33537 ft 496 kts 276°
2026-04-15 11:36 55.10867 -10.92345 33531 ft 496 kts 276°
2026-04-15 11:37 55.12201 -11.04127 33551 ft 496 kts 276°
2026-04-15 11:37 55.13530 -11.15999 33533 ft 494 kts 276°
2026-04-15 11:38 55.14837 -11.27746 33520 ft 494 kts 276°
2026-04-15 11:38 55.16142 -11.39598 33521 ft 494 kts 276°
2026-04-15 11:39 55.17435 -11.51454 33516 ft 494 kts 276°
2026-04-15 11:39 55.18708 -11.63251 33512 ft 494 kts 276°
2026-04-15 11:40 55.19970 -11.75047 33505 ft 494 kts 275°
2026-04-15 11:40 55.21227 -11.86915 33504 ft 494 kts 275°
2026-04-15 11:41 55.22467 -11.98751 33492 ft 495 kts 275°
2026-04-15 11:41 55.23705 -12.10674 33493 ft 495 kts 275°
2026-04-15 11:42 55.24923 -12.22522 33526 ft 495 kts 275°
2026-04-15 11:42 55.26135 -12.34451 33497 ft 494 kts 275°
2026-04-15 11:43 55.27331 -12.46304 33485 ft 494 kts 275°
2026-04-15 11:43 55.28513 -12.58151 33484 ft 494 kts 275°
2026-04-15 11:44 55.29682 -12.70003 33472 ft 494 kts 275°
2026-04-15 11:44 55.30848 -12.81945 33497 ft 493 kts 275°
2026-04-15 11:45 55.33110 -13.05472 33458 ft 492 kts 275°
2026-04-15 11:46 55.34236 -13.17377 33454 ft 492 kts 275°
2026-04-15 11:46 55.35347 -13.29241 33458 ft 492 kts 275°
2026-04-15 11:47 55.36444 -13.41098 33471 ft 492 kts 275°
2026-04-15 11:47 55.37525 -13.52937 33447 ft 490 kts 275°
2026-04-15 11:48 55.38603 -13.64825 33440 ft 490 kts 275°
2026-04-15 11:48 55.39660 -13.76626 33439 ft 490 kts 275°
2026-04-15 11:49 55.40714 -13.88536 33434 ft 490 kts 275°
2026-04-15 11:49 55.41753 -14.00417 33462 ft 490 kts 275°
2026-04-15 11:50 55.42776 -14.12262 33434 ft 489 kts 275°
2026-04-15 11:50 55.43786 -14.24073 33426 ft 488 kts 274°
2026-04-15 11:51 55.44788 -14.35931 33422 ft 488 kts 274°
2026-04-15 11:51 55.45775 -14.47753 33419 ft 489 kts 274°
2026-04-15 11:52 55.46755 -14.59633 33436 ft 490 kts 274°
2026-04-15 11:52 55.47726 -14.71571 33415 ft 489 kts 274°
2026-04-15 11:53 55.48678 -14.83406 33404 ft 488 kts 274°
2026-04-15 11:53 55.49806 -14.95224 33403 ft 491 kts 278°
2026-04-15 11:54 55.51601 -15.06858 33400 ft 494 kts 285°
2026-04-15 11:54 55.54030 -15.18285 33401 ft 496 kts 288°
2026-04-15 11:55 55.56578 -15.29620 33399 ft 494 kts 288°
2026-04-15 11:55 55.59097 -15.40889 33390 ft 493 kts 288°
2026-04-15 11:56 55.61610 -15.52235 33397 ft 495 kts 288°
2026-04-15 11:56 55.64103 -15.63572 33388 ft 495 kts 288°
2026-04-15 11:57 55.67827 -15.80631 33384 ft 495 kts 288°
2026-04-15 11:58 55.70308 -15.92082 33396 ft 494 kts 288°
2026-04-15 11:58 55.72750 -16.03415 33384 ft 493 kts 288°
2026-04-15 11:59 55.75200 -16.14835 33377 ft 493 kts 288°
2026-04-15 11:59 55.77626 -16.26212 33384 ft 494 kts 288°
2026-04-15 12:00 55.80046 -16.37627 33380 ft 495 kts 288°
2026-04-15 12:00 55.82473 -16.49140 33372 ft 495 kts 288°
2026-04-15 12:01 55.84877 -16.60618 33381 ft 494 kts 288°
2026-04-15 12:01 55.87274 -16.72118 33358 ft 494 kts 288°
2026-04-15 12:02 55.89660 -16.83625 33375 ft 493 kts 288°
2026-04-15 12:02 55.92029 -16.95123 33376 ft 493 kts 287°
2026-04-15 12:03 55.94382 -17.06607 33360 ft 494 kts 287°
2026-04-15 12:03 55.96739 -17.18179 33372 ft 495 kts 287°
2026-04-15 12:04 55.99072 -17.29712 33365 ft 494 kts 287°
2026-04-15 12:04 56.01397 -17.41258 33364 ft 493 kts 287°
2026-04-15 12:05 56.03718 -17.52847 33357 ft 493 kts 287°
2026-04-15 12:05 56.06013 -17.64375 33360 ft 493 kts 287°
2026-04-15 12:06 56.08299 -17.75932 33360 ft 493 kts 287°
2026-04-15 12:06 56.10580 -17.87532 33360 ft 493 kts 287°
2026-04-15 12:07 56.12847 -17.99128 33358 ft 493 kts 287°
2026-04-15 12:07 56.15112 -18.10786 33359 ft 493 kts 287°
2026-04-15 12:08 56.17356 -18.22406 33357 ft 493 kts 287°
2026-04-15 12:08 56.19588 -18.34036 33356 ft 493 kts 287°
2026-04-15 12:09 56.21826 -18.45768 33353 ft 493 kts 287°
2026-04-15 12:09 56.24035 -18.57413 33358 ft 493 kts 286°
2026-04-15 12:10 56.26248 -18.69170 33367 ft 493 kts 287°
2026-04-15 12:10 56.28437 -18.80852 33358 ft 493 kts 287°
2026-04-15 12:11 56.30614 -18.92537 33355 ft 493 kts 287°
2026-04-15 12:11 56.32784 -19.04266 33356 ft 493 kts 286°
2026-04-15 12:12 56.34948 -19.16032 33359 ft 493 kts 286°
2026-04-15 12:12 56.37102 -19.27825 33359 ft 493 kts 286°
2026-04-15 12:13 56.39230 -19.39553 33364 ft 491 kts 286°
2026-04-15 12:13 56.41351 -19.51308 33359 ft 491 kts 286°
2026-04-15 12:14 56.43456 -19.63042 33358 ft 492 kts 286°
2026-04-15 12:14 56.45561 -19.74850 33358 ft 492 kts 286°
2026-04-15 12:15 56.47639 -19.86605 33360 ft 492 kts 286°
2026-04-15 12:15 56.49389 -19.98598 33358 ft 490 kts 279°
2026-04-15 12:16 56.50392 -20.10743 33369 ft 487 kts 274°
2026-04-15 12:16 56.50890 -20.23005 33367 ft 487 kts 272°
2026-04-15 12:17 56.51342 -20.35250 33360 ft 487 kts 272°
2026-04-15 12:17 56.51788 -20.47472 33360 ft 488 kts 272°
2026-04-15 12:18 56.52155 -20.57719 33366 ft 488 kts 272°
2026-04-15 12:18 56.52585 -20.70027 33365 ft 488 kts 272°
2026-04-15 12:19 56.53002 -20.82291 33369 ft 486 kts 272°
2026-04-15 12:19 56.53406 -20.94469 33369 ft 486 kts 272°
2026-04-15 12:20 56.53799 -21.06671 33369 ft 485 kts 272°
2026-04-15 12:20 56.54182 -21.18942 33360 ft 485 kts 272°
2026-04-15 12:21 56.54550 -21.31160 33366 ft 485 kts 272°
2026-04-15 12:21 56.54901 -21.43296 33361 ft 481 kts 272°
2026-04-15 12:22 56.55245 -21.55428 33365 ft 480 kts 272°
2026-04-15 12:22 56.55577 -21.67579 33368 ft 480 kts 272°
2026-04-15 12:23 56.55894 -21.79648 33377 ft 480 kts 272°
2026-04-15 12:23 56.56203 -21.91834 33377 ft 481 kts 271°
2026-04-15 12:24 56.56493 -22.03903 33367 ft 480 kts 272°
2026-04-15 12:24 56.56776 -22.16004 33369 ft 479 kts 272°
2026-04-15 12:25 56.57048 -22.28123 33370 ft 479 kts 271°
2026-04-15 12:25 56.57307 -22.40187 33373 ft 479 kts 271°
2026-04-15 12:26 56.57554 -22.52287 33380 ft 479 kts 271°
2026-04-15 12:26 56.57786 -22.64404 33379 ft 477 kts 272°
2026-04-15 12:27 56.58008 -22.76393 33371 ft 476 kts 271°
2026-04-15 12:27 56.58220 -22.88423 33377 ft 476 kts 271°
2026-04-15 12:28 56.58420 -23.00492 33374 ft 476 kts 271°
2026-04-15 12:28 56.58607 -23.12460 33378 ft 476 kts 271°
2026-04-15 12:29 56.58781 -23.24438 33371 ft 475 kts 271°
2026-04-15 12:29 56.58942 -23.36438 33380 ft 474 kts 271°
2026-04-15 12:30 56.59096 -23.48439 33386 ft 473 kts 271°
2026-04-15 12:30 56.59236 -23.60358 33381 ft 473 kts 271°
2026-04-15 12:31 56.59366 -23.72372 33381 ft 473 kts 271°
2026-04-15 12:31 56.59483 -23.84339 33388 ft 473 kts 271°
2026-04-15 12:32 56.59584 -23.96231 33379 ft 471 kts 271°
2026-04-15 12:32 56.59679 -24.08078 33385 ft 470 kts 271°
2026-04-15 12:33 56.59763 -24.20000 33384 ft 470 kts 271°
2026-04-15 12:33 56.59834 -24.31851 33383 ft 470 kts 271°
2026-04-15 12:34 56.59895 -24.43794 33387 ft 470 kts 271°
2026-04-15 12:34 56.59944 -24.55620 33388 ft 471 kts 271°
2026-04-15 12:35 56.59981 -24.67555 33387 ft 472 kts 271°
2026-04-15 12:35 56.60007 -24.79508 33387 ft 472 kts 271°
2026-04-15 12:36 56.60021 -24.91412 33390 ft 472 kts 270°
2026-04-15 12:36 56.60024 -25.03375 33390 ft 472 kts 270°
2026-04-15 12:37 56.60014 -25.15273 33378 ft 471 kts 271°
2026-04-15 12:37 56.59990 -25.27126 33386 ft 469 kts 271°
2026-04-15 12:38 56.59962 -25.38907 33387 ft 468 kts 271°
2026-04-15 12:38 56.59920 -25.50814 33387 ft 468 kts 270°
2026-04-15 12:39 56.59867 -25.62629 33386 ft 468 kts 270°
2026-04-15 12:39 56.59803 -25.74456 33387 ft 468 kts 270°
2026-04-15 12:40 56.59723 -25.86228 33381 ft 465 kts 271°
2026-04-15 12:40 56.59638 -25.97998 33386 ft 466 kts 271°
2026-04-15 12:41 56.59542 -26.09738 33387 ft 466 kts 271°
2026-04-15 12:41 56.59434 -26.21571 33387 ft 466 kts 270°
2026-04-15 12:42 56.59314 -26.33299 33384 ft 466 kts 270°
2026-04-15 12:42 56.59181 -26.45040 33361 ft 465 kts 271°
2026-04-15 12:43 56.59038 -26.56738 33374 ft 464 kts 271°
2026-04-15 12:43 56.58887 -26.68511 33375 ft 463 kts 271°
2026-04-15 12:44 56.58726 -26.80186 33385 ft 464 kts 270°
2026-04-15 12:44 56.58552 -26.91877 33375 ft 464 kts 270°
2026-04-15 12:45 56.58366 -27.03623 33375 ft 464 kts 270°
2026-04-15 12:45 56.58169 -27.15214 33375 ft 458 kts 270°
2026-04-15 12:46 56.57964 -27.26816 33376 ft 457 kts 270°
2026-04-15 12:46 56.57751 -27.38325 33374 ft 458 kts 270°
2026-04-15 12:47 56.57524 -27.49930 33372 ft 458 kts 270°
2026-04-15 12:47 56.57288 -27.61446 33371 ft 458 kts 270°
2026-04-15 12:48 56.57042 -27.73008 33356 ft 456 kts 270°
2026-04-15 12:48 56.56786 -27.84442 33360 ft 453 kts 270°
2026-04-15 12:49 56.56518 -27.95917 33366 ft 453 kts 269°
2026-04-15 12:49 56.56242 -28.07314 33362 ft 453 kts 269°
2026-04-15 12:50 56.55955 -28.18730 33362 ft 453 kts 269°
2026-04-15 12:50 56.55656 -28.30210 33369 ft 453 kts 269°
2026-04-15 12:51 56.55351 -28.41624 33360 ft 454 kts 269°
2026-04-15 12:51 56.55031 -28.53056 33366 ft 454 kts 269°
2026-04-15 12:52 56.54699 -28.64561 33367 ft 455 kts 269°
2026-04-15 12:52 56.54357 -28.76038 33378 ft 457 kts 269°
2026-04-15 12:53 56.54005 -28.87541 33378 ft 457 kts 269°
2026-04-15 12:53 56.53643 -28.99026 33371 ft 457 kts 268°
2026-04-15 12:54 56.53268 -29.10583 33384 ft 457 kts 268°
2026-04-15 12:54 56.52883 -29.22051 33398 ft 458 kts 268°
2026-04-15 12:55 56.52485 -29.33611 33393 ft 457 kts 268°
2026-04-15 12:55 56.52080 -29.45092 33400 ft 458 kts 268°
2026-04-15 12:56 56.51662 -29.56619 33413 ft 458 kts 268°
2026-04-15 12:56 56.51236 -29.68176 33404 ft 457 kts 267°
2026-04-15 12:57 56.50798 -29.79644 33422 ft 457 kts 267°
2026-04-15 12:57 56.50348 -29.91121 33424 ft 457 kts 267°
2026-04-15 12:58 56.49871 -30.02629 33437 ft 458 kts 266°
2026-04-15 12:58 56.49205 -30.14103 33435 ft 458 kts 265°
2026-04-15 12:59 56.48155 -30.31329 33436 ft 457 kts 265°
2026-04-15 12:59 56.47456 -30.42733 33444 ft 457 kts 265°
2026-04-15 13:00 56.46745 -30.54212 33443 ft 457 kts 265°
2026-04-15 13:00 56.46029 -30.65642 33445 ft 457 kts 265°
2026-04-15 13:01 56.45305 -30.77029 33456 ft 457 kts 265°
2026-04-15 13:01 56.44567 -30.88473 33451 ft 457 kts 264°
2026-04-15 13:02 56.43819 -30.99902 33470 ft 457 kts 264°
2026-04-15 13:02 56.43063 -31.11303 33474 ft 457 kts 264°
2026-04-15 13:03 56.42293 -31.22754 33478 ft 457 kts 264°
2026-04-15 13:03 56.41514 -31.34156 33478 ft 457 kts 264°
2026-04-15 13:04 56.40730 -31.45496 33492 ft 457 kts 264°
2026-04-15 13:04 56.39928 -31.56943 33490 ft 457 kts 264°
2026-04-15 13:05 56.39118 -31.68318 33492 ft 457 kts 264°
2026-04-15 13:05 56.38433 -31.77827 33506 ft 457 kts 264°
2026-04-15 13:06 56.37601 -31.89245 33506 ft 457 kts 264°
2026-04-15 13:06 56.36766 -32.00575 33520 ft 457 kts 264°
2026-04-15 13:07 56.35912 -32.12000 33508 ft 456 kts 263°
2026-04-15 13:07 56.35055 -32.23328 33523 ft 456 kts 263°
2026-04-15 13:08 56.34187 -32.34645 33528 ft 456 kts 263°
2026-04-15 13:08 56.33306 -32.46005 33536 ft 456 kts 263°
2026-04-15 13:09 56.32420 -32.57286 33539 ft 456 kts 263°
2026-04-15 13:09 56.31516 -32.68656 33539 ft 456 kts 263°
2026-04-15 13:10 56.30609 -32.79967 33545 ft 456 kts 263°
2026-04-15 13:10 56.29684 -32.91320 33556 ft 456 kts 263°
2026-04-15 13:11 56.28753 -33.02618 33562 ft 457 kts 263°
2026-04-15 13:11 56.27807 -33.13973 33563 ft 457 kts 262°
2026-04-15 13:12 56.26855 -33.25270 33572 ft 457 kts 262°
2026-04-15 13:12 56.25890 -33.36636 33568 ft 457 kts 262°
2026-04-15 13:13 56.24916 -33.47943 33580 ft 458 kts 262°
2026-04-15 13:13 56.23932 -33.59216 33580 ft 457 kts 262°
2026-04-15 13:14 56.22929 -33.70595 33591 ft 458 kts 262°
2026-04-15 13:14 56.21924 -33.81888 33591 ft 457 kts 262°
2026-04-15 13:15 56.20909 -33.93163 33589 ft 458 kts 261°
2026-04-15 13:15 56.19879 -34.04524 33593 ft 459 kts 261°
2026-04-15 13:16 56.18841 -34.15799 33600 ft 458 kts 261°
2026-04-15 13:16 56.17788 -34.27134 33611 ft 459 kts 261°
2026-04-15 13:17 56.16729 -34.38409 33604 ft 459 kts 261°
2026-04-15 13:17 56.15652 -34.49771 33612 ft 459 kts 261°
2026-04-15 13:18 56.14574 -34.61049 33625 ft 460 kts 260°
2026-04-15 13:18 56.13484 -34.72313 33621 ft 460 kts 260°
2026-04-15 13:19 56.12374 -34.83659 33640 ft 460 kts 260°
2026-04-15 13:19 56.11263 -34.94922 33641 ft 461 kts 260°
2026-04-15 13:20 56.10135 -35.06240 33627 ft 460 kts 260°
2026-04-15 13:20 56.09002 -35.17515 33643 ft 460 kts 259°
2026-04-15 13:21 56.07858 -35.28779 33644 ft 460 kts 259°
2026-04-15 13:21 56.06697 -35.40091 33639 ft 459 kts 259°
2026-04-15 13:22 56.05533 -35.51327 33657 ft 460 kts 259°
2026-04-15 13:22 56.04356 -35.62587 33647 ft 461 kts 259°
2026-04-15 13:23 56.03163 -35.73902 33649 ft 460 kts 259°
2026-04-15 13:23 56.01970 -35.85131 33670 ft 460 kts 259°
2026-04-15 13:24 56.00758 -35.96396 33657 ft 461 kts 259°
2026-04-15 13:24 55.99544 -36.07592 33672 ft 460 kts 258°
2026-04-15 13:25 55.98310 -36.18864 33673 ft 461 kts 258°
2026-04-15 13:25 55.97068 -36.30117 33669 ft 460 kts 258°
2026-04-15 13:26 55.95825 -36.41291 33676 ft 459 kts 258°
2026-04-15 13:26 55.94569 -36.52464 33673 ft 461 kts 258°
2026-04-15 13:27 55.93294 -36.63710 33676 ft 460 kts 258°
2026-04-15 13:27 55.92015 -36.74907 33692 ft 459 kts 258°
2026-04-15 13:28 55.90732 -36.86035 33697 ft 460 kts 258°
2026-04-15 13:28 55.89429 -36.97239 33683 ft 460 kts 258°
2026-04-15 13:29 55.88120 -37.08410 33707 ft 459 kts 258°
2026-04-15 13:29 55.86802 -37.19556 33705 ft 460 kts 258°
2026-04-15 13:30 55.85471 -37.30720 33708 ft 460 kts 258°
2026-04-15 13:30 55.84135 -37.41838 33700 ft 459 kts 257°
2026-04-15 13:31 55.82782 -37.53002 33720 ft 460 kts 257°
2026-04-15 13:31 55.81427 -37.64092 33719 ft 460 kts 257°
2026-04-15 13:32 55.80054 -37.75241 33731 ft 459 kts 257°
2026-04-15 13:32 55.78680 -37.86319 33731 ft 459 kts 257°
2026-04-15 13:33 55.77296 -37.97381 33718 ft 460 kts 257°
2026-04-15 13:33 55.75903 -38.08424 33740 ft 459 kts 257°
2026-04-15 13:34 55.74492 -38.19526 33735 ft 458 kts 257°
2026-04-15 13:34 55.73086 -38.30504 33739 ft 458 kts 257°
2026-04-15 13:35 55.71660 -38.41554 33750 ft 457 kts 257°
2026-04-15 13:35 55.70232 -38.52529 33759 ft 458 kts 257°
2026-04-15 13:36 55.68785 -38.63576 33760 ft 458 kts 257°
2026-04-15 13:36 55.67340 -38.74518 33764 ft 456 kts 256°
2026-04-15 13:37 55.65874 -38.85533 33758 ft 455 kts 256°
2026-04-15 13:37 55.64412 -38.96444 33767 ft 456 kts 256°
2026-04-15 13:38 55.62937 -39.07370 33768 ft 456 kts 256°
2026-04-15 13:38 55.61451 -39.18296 33776 ft 456 kts 256°
2026-04-15 13:39 55.59958 -39.29190 33784 ft 457 kts 256°
2026-04-15 13:39 55.58453 -39.40102 33797 ft 456 kts 256°
2026-04-15 13:40 55.56941 -39.50981 33790 ft 455 kts 256°
2026-04-15 13:40 55.55419 -39.61856 33808 ft 455 kts 256°
2026-04-15 13:41 55.53893 -39.72683 33805 ft 456 kts 256°
2026-04-15 13:41 55.52346 -39.83583 33809 ft 455 kts 256°
2026-04-15 13:42 55.50800 -39.94393 33812 ft 454 kts 255°
2026-04-15 13:42 55.49217 -40.05239 33809 ft 456 kts 255°
2026-04-15 13:43 55.47573 -40.16057 33812 ft 455 kts 255°
2026-04-15 13:43 55.45925 -40.26821 33820 ft 454 kts 255°
2026-04-15 13:44 55.44267 -40.37598 33837 ft 455 kts 255°
2026-04-15 13:44 55.42610 -40.48317 33827 ft 456 kts 255°
2026-04-15 13:45 55.40939 -40.59058 33843 ft 455 kts 254°
2026-04-15 13:47 55.34145 -41.02029 33851 ft 456 kts 254°
2026-04-15 13:47 55.32415 -41.12802 33870 ft 457 kts 254°
2026-04-15 13:48 55.30672 -41.23584 33878 ft 457 kts 254°
2026-04-15 13:48 55.28929 -41.34305 33870 ft 457 kts 254°
2026-04-15 13:49 55.27169 -41.45056 33901 ft 457 kts 254°
2026-04-15 13:49 55.25399 -41.55800 33880 ft 458 kts 254°
2026-04-15 13:50 55.23623 -41.66500 33898 ft 459 kts 254°
2026-04-15 13:50 55.21824 -41.77298 33897 ft 458 kts 254°
2026-04-15 13:51 55.20029 -41.88000 33901 ft 458 kts 254°
2026-04-15 13:51 55.18223 -41.98704 33911 ft 459 kts 254°
2026-04-15 13:52 55.16707 -42.07639 33907 ft 459 kts 254°
2026-04-15 13:52 55.14881 -42.18317 33909 ft 459 kts 254°
2026-04-15 13:53 55.13037 -42.29062 33915 ft 460 kts 254°
2026-04-15 13:53 55.11182 -42.39803 33909 ft 460 kts 254°
2026-04-15 13:54 55.09329 -42.50465 33922 ft 460 kts 254°
2026-04-15 13:54 55.07463 -42.61140 33920 ft 459 kts 253°
2026-04-15 13:55 55.05580 -42.71848 33924 ft 460 kts 253°
2026-04-15 13:55 55.03700 -42.82473 33934 ft 460 kts 253°
2026-04-15 13:56 55.01799 -42.93155 33932 ft 460 kts 253°
2026-04-15 13:56 54.99887 -43.03833 33946 ft 460 kts 253°
2026-04-15 13:57 54.97972 -43.14469 33944 ft 460 kts 253°
2026-04-15 13:57 54.96040 -43.25134 33951 ft 460 kts 253°
2026-04-15 13:58 54.94115 -43.35696 33944 ft 459 kts 253°
2026-04-15 13:58 54.92168 -43.46330 33955 ft 459 kts 253°
2026-04-15 13:59 54.90213 -43.56940 33951 ft 459 kts 253°
2026-04-15 13:59 54.88259 -43.67487 33959 ft 459 kts 253°
2026-04-15 14:00 54.86299 -43.78007 33945 ft 459 kts 253°
2026-04-15 14:00 54.84317 -43.88571 33963 ft 459 kts 253°
2026-04-15 14:01 54.81346 -44.04328 33963 ft 459 kts 253°
2026-04-15 14:02 54.79341 -44.14879 33982 ft 458 kts 253°
2026-04-15 14:02 54.77344 -44.25332 33970 ft 458 kts 253°
2026-04-15 14:03 54.75321 -44.35845 33969 ft 457 kts 253°
2026-04-15 14:03 54.73311 -44.46253 33977 ft 457 kts 253°
2026-04-15 14:04 54.71277 -44.56734 33982 ft 457 kts 253°
2026-04-15 14:04 54.69249 -44.67121 33984 ft 457 kts 253°
2026-04-15 14:05 54.67198 -44.77571 33986 ft 457 kts 253°
2026-04-15 14:05 54.65152 -44.87922 33973 ft 457 kts 253°
2026-04-15 14:06 54.63096 -44.98277 33990 ft 456 kts 253°
2026-04-15 14:06 54.61017 -45.08707 33993 ft 456 kts 253°
2026-04-15 14:07 54.58952 -45.19014 33998 ft 456 kts 253°
2026-04-15 14:07 54.56861 -45.29388 33998 ft 456 kts 253°
2026-04-15 14:08 54.54773 -45.39685 33990 ft 456 kts 253°
2026-04-15 14:08 54.52670 -45.50003 33999 ft 453 kts 253°
2026-04-15 14:09 54.50574 -45.60243 34006 ft 453 kts 253°
2026-04-15 14:09 54.48478 -45.70427 34006 ft 453 kts 253°
2026-04-15 14:10 54.46351 -45.80711 34013 ft 453 kts 253°
2026-04-15 14:10 54.44236 -45.90879 33989 ft 453 kts 253°
2026-04-15 14:11 54.42109 -46.01047 34010 ft 452 kts 253°
2026-04-15 14:11 54.39968 -46.11243 34013 ft 452 kts 253°
2026-04-15 14:12 54.37816 -46.21436 34012 ft 452 kts 253°
2026-04-15 14:12 54.35671 -46.31546 34021 ft 452 kts 252°
2026-04-15 14:13 54.33515 -46.41656 34022 ft 452 kts 252°
2026-04-15 14:13 54.31348 -46.51758 34025 ft 451 kts 253°
2026-04-15 14:14 54.29170 -46.61872 34027 ft 451 kts 252°
2026-04-15 14:14 54.26994 -46.71929 34041 ft 451 kts 252°
2026-04-15 14:15 54.24802 -46.82009 34035 ft 449 kts 252°
2026-04-15 14:15 54.22621 -46.91991 34043 ft 449 kts 252°
2026-04-15 14:16 54.20427 -47.01964 34031 ft 448 kts 253°
2026-04-15 14:16 54.18220 -47.11971 34039 ft 448 kts 252°
2026-04-15 14:17 54.16024 -47.21878 34041 ft 448 kts 252°
2026-04-15 14:17 54.13800 -47.31864 34047 ft 448 kts 252°
2026-04-15 14:18 54.11585 -47.41761 34048 ft 448 kts 252°
2026-04-15 14:18 54.09343 -47.51716 34028 ft 447 kts 252°
2026-04-15 14:19 54.07114 -47.61573 34045 ft 446 kts 252°
2026-04-15 14:19 54.04884 -47.71406 34049 ft 446 kts 252°
2026-04-15 14:20 54.02629 -47.81295 34045 ft 446 kts 252°
2026-04-15 14:20 54.00383 -47.91094 34052 ft 446 kts 252°
2026-04-15 14:21 53.98129 -48.00887 34061 ft 445 kts 252°
2026-04-15 14:21 53.95860 -48.10693 34057 ft 444 kts 252°
2026-04-15 14:22 53.93602 -48.20412 34053 ft 444 kts 252°
2026-04-15 14:22 53.91321 -48.30185 34054 ft 444 kts 252°
2026-04-15 14:23 53.89044 -48.39895 34052 ft 444 kts 252°
2026-04-15 14:23 53.86759 -48.49595 34038 ft 443 kts 252°
2026-04-15 14:24 53.84468 -48.59264 34053 ft 442 kts 252°
2026-04-15 14:24 53.82166 -48.68954 34058 ft 441 kts 252°
2026-04-15 14:25 53.79872 -48.78566 34060 ft 441 kts 252°
2026-04-15 14:25 53.77564 -48.88190 34056 ft 441 kts 252°
2026-04-15 14:26 53.75250 -48.97799 34062 ft 441 kts 252°
2026-04-15 14:26 53.72924 -49.07407 34053 ft 440 kts 252°
2026-04-15 14:27 53.70590 -49.17013 34063 ft 440 kts 252°
2026-04-15 14:27 53.68272 -49.26515 34070 ft 438 kts 252°
2026-04-15 14:28 53.65936 -49.36041 34074 ft 437 kts 252°
2026-04-15 14:28 53.63614 -49.45477 34072 ft 437 kts 251°
2026-04-15 14:29 53.61266 -49.54967 34064 ft 436 kts 252°
2026-04-15 14:29 53.58931 -49.64373 34072 ft 436 kts 251°
2026-04-15 14:30 53.56592 -49.73756 34088 ft 435 kts 251°
2026-04-15 14:30 53.54236 -49.83164 34089 ft 435 kts 251°
2026-04-15 14:31 53.51882 -49.92523 34096 ft 435 kts 251°
2026-04-15 14:31 53.49513 -50.01933 34076 ft 435 kts 252°
2026-04-15 14:32 53.47236 -50.11329 34094 ft 434 kts 252°
2026-04-15 14:32 53.44967 -50.20707 34103 ft 434 kts 252°
2026-04-15 14:33 53.42675 -50.30123 34112 ft 434 kts 252°
2026-04-15 14:33 53.40384 -50.39478 34114 ft 434 kts 252°
2026-04-15 14:34 53.38069 -50.48890 34083 ft 434 kts 252°
2026-04-15 14:34 53.35762 -50.58230 34118 ft 435 kts 252°
2026-04-15 14:35 53.33446 -50.67560 34124 ft 435 kts 252°
2026-04-15 14:35 53.31101 -50.76969 34131 ft 435 kts 252°
2026-04-15 14:36 53.28770 -50.86283 34133 ft 435 kts 252°
2026-04-15 14:36 53.26433 -50.95585 34138 ft 435 kts 251°
2026-04-15 14:37 53.24078 -51.04921 34127 ft 436 kts 251°
2026-04-15 14:37 53.21712 -51.14254 34144 ft 436 kts 251°
2026-04-15 14:38 53.19344 -51.23557 34145 ft 436 kts 251°
2026-04-15 14:38 53.16965 -51.32862 34156 ft 436 kts 251°
2026-04-15 14:39 53.14581 -51.42155 34154 ft 436 kts 251°
2026-04-15 14:39 53.12582 -51.49918 34142 ft 436 kts 251°
2026-04-15 14:40 53.10186 -51.59192 34167 ft 435 kts 250°
2026-04-15 14:40 53.07383 -51.69978 34175 ft 435 kts 250°
2026-04-15 14:41 53.05377 -51.77667 34178 ft 435 kts 250°
2026-04-15 14:41 53.02959 -51.86901 34183 ft 435 kts 250°
2026-04-15 14:42 53.00535 -51.96124 34164 ft 435 kts 250°
2026-04-15 14:42 52.98116 -52.05297 34180 ft 435 kts 250°
2026-04-15 14:43 52.95680 -52.14486 34191 ft 435 kts 250°
2026-04-15 14:43 52.93230 -52.23692 34194 ft 435 kts 250°
2026-04-15 14:44 52.90787 -52.32838 34202 ft 435 kts 250°
2026-04-15 14:44 52.88322 -52.42030 34200 ft 435 kts 250°
2026-04-15 14:45 52.85862 -52.51169 34202 ft 435 kts 249°
2026-04-15 14:45 52.83378 -52.60355 34210 ft 436 kts 249°
2026-04-15 14:46 52.80899 -52.69486 34219 ft 436 kts 249°
2026-04-15 14:46 52.78406 -52.78636 34213 ft 435 kts 249°
2026-04-15 14:47 52.75922 -52.87712 34217 ft 434 kts 249°
2026-04-15 14:47 52.73429 -52.96790 34219 ft 434 kts 249°
2026-04-15 14:48 52.70914 -53.05910 34225 ft 434 kts 249°
2026-04-15 14:48 52.68409 -53.14959 34227 ft 434 kts 249°
2026-04-15 14:49 52.65898 -53.23994 34234 ft 435 kts 249°
2026-04-15 14:49 52.63365 -53.33073 34233 ft 435 kts 249°
2026-04-15 14:50 52.60838 -53.42097 34226 ft 435 kts 249°
2026-04-15 14:50 52.58301 -53.51123 34231 ft 435 kts 248°
2026-04-15 14:51 52.55751 -53.60155 34232 ft 435 kts 248°
2026-04-15 14:51 52.53185 -53.69210 34251 ft 435 kts 248°
2026-04-15 14:52 52.50627 -53.78204 34262 ft 435 kts 248°
2026-04-15 14:52 52.48044 -53.87253 34226 ft 435 kts 248°
2026-04-15 14:53 52.45471 -53.96229 34248 ft 435 kts 248°
2026-04-15 14:53 52.42897 -54.05175 34253 ft 435 kts 248°
2026-04-15 14:54 52.40313 -54.14123 34251 ft 435 kts 248°
2026-04-15 14:54 52.37705 -54.23119 34259 ft 435 kts 248°
2026-04-15 14:55 52.35114 -54.32022 34256 ft 435 kts 248°
2026-04-15 14:55 52.32489 -54.41010 34250 ft 436 kts 248°
2026-04-15 14:56 52.29877 -54.49917 34254 ft 436 kts 248°
2026-04-15 14:56 52.27243 -54.58868 34261 ft 436 kts 248°
2026-04-15 14:57 52.24600 -54.67818 34265 ft 436 kts 248°
2026-04-15 14:57 52.21962 -54.76715 34263 ft 436 kts 247°
2026-04-15 14:58 52.19327 -54.85567 34274 ft 436 kts 247°
2026-04-15 14:58 52.16660 -54.94499 34267 ft 435 kts 247°
2026-04-15 14:59 52.14017 -55.03315 34265 ft 435 kts 247°
2026-04-15 14:59 52.11348 -55.12178 34262 ft 435 kts 247°
2026-04-15 15:00 52.08528 -55.20852 34264 ft 436 kts 244°
2026-04-15 15:00 52.05527 -55.29470 34254 ft 437 kts 244°
2026-04-15 15:01 52.02536 -55.38041 34258 ft 437 kts 244°
2026-04-15 15:01 51.99518 -55.46654 34259 ft 437 kts 244°
2026-04-15 15:02 51.96514 -55.55191 34258 ft 437 kts 244°
2026-04-15 15:02 51.93484 -55.63774 34259 ft 437 kts 244°
2026-04-15 15:03 51.90452 -55.72333 34253 ft 438 kts 244°
2026-04-15 15:03 51.87422 -55.80857 34255 ft 438 kts 244°
2026-04-15 15:04 51.84378 -55.89391 34258 ft 438 kts 244°
2026-04-15 15:04 51.81310 -55.97962 34261 ft 438 kts 243°
2026-04-15 15:05 51.78265 -56.06442 34256 ft 438 kts 243°
2026-04-15 15:05 51.75190 -56.14975 34249 ft 437 kts 243°
2026-04-15 15:06 51.70585 -56.27702 34257 ft 437 kts 243°
2026-04-15 15:06 51.67524 -56.36126 34257 ft 437 kts 243°
2026-04-15 15:07 51.64444 -56.44575 34253 ft 437 kts 243°
2026-04-15 15:07 51.61344 -56.53047 34240 ft 436 kts 243°
2026-04-15 15:08 51.58269 -56.61425 34247 ft 436 kts 243°
2026-04-15 15:08 51.55177 -56.69825 34251 ft 436 kts 243°
2026-04-15 15:09 51.52089 -56.78183 34251 ft 436 kts 243°
2026-04-15 15:09 51.48992 -56.86541 34254 ft 436 kts 243°
2026-04-15 15:10 51.45865 -56.94943 34247 ft 434 kts 243°
2026-04-15 15:10 51.42795 -57.03175 34257 ft 433 kts 243°
2026-04-15 15:11 51.39689 -57.11473 34257 ft 433 kts 243°
2026-04-15 15:11 51.36571 -57.19781 34247 ft 434 kts 243°
2026-04-15 15:12 51.33458 -57.28048 34242 ft 435 kts 243°
2026-04-15 15:12 51.30328 -57.36328 34245 ft 435 kts 243°
2026-04-15 15:13 51.27183 -57.44622 34246 ft 435 kts 243°
2026-04-15 15:13 51.24050 -57.52858 34242 ft 435 kts 243°
2026-04-15 15:14 51.20916 -57.61073 34244 ft 435 kts 243°
2026-04-15 15:14 51.17765 -57.69303 34210 ft 435 kts 243°
2026-04-15 15:15 51.14601 -57.77537 34238 ft 433 kts 243°
2026-04-15 15:15 51.11459 -57.85694 34249 ft 433 kts 243°
2026-04-15 15:16 51.08289 -57.93898 34248 ft 433 kts 243°
2026-04-15 15:16 51.05136 -58.02031 34249 ft 433 kts 242°
2026-04-15 15:17 51.01960 -58.10195 34227 ft 433 kts 242°
2026-04-15 15:17 50.98786 -58.18329 34244 ft 433 kts 242°
2026-04-15 15:18 50.95619 -58.26421 34262 ft 434 kts 242°
2026-04-15 15:18 50.92409 -58.34600 34255 ft 435 kts 242°
2026-04-15 15:19 50.89212 -58.42717 34245 ft 435 kts 242°
2026-04-15 15:19 50.85990 -58.50869 34220 ft 436 kts 242°
2026-04-15 15:20 50.82755 -58.59030 34232 ft 436 kts 242°
2026-04-15 15:20 50.79538 -58.67122 34238 ft 436 kts 242°
2026-04-15 15:21 50.76287 -58.75275 34240 ft 436 kts 242°
2026-04-15 15:21 50.73051 -58.83363 34237 ft 436 kts 242°
2026-04-15 15:22 50.69813 -58.91428 34232 ft 436 kts 242°
2026-04-15 15:22 50.66544 -58.99550 34235 ft 436 kts 242°
2026-04-15 15:23 50.63300 -59.07582 34238 ft 437 kts 242°
2026-04-15 15:23 50.60015 -59.15692 34229 ft 437 kts 242°
2026-04-15 15:24 50.56751 -59.23727 34230 ft 437 kts 242°
2026-04-15 15:24 50.53457 -59.31805 34220 ft 437 kts 242°
2026-04-15 15:25 50.50168 -59.39848 34225 ft 439 kts 242°
2026-04-15 15:25 50.46864 -59.47907 34224 ft 439 kts 242°
2026-04-15 15:26 50.43553 -59.55956 34222 ft 439 kts 242°
2026-04-15 15:26 50.40216 -59.64042 34199 ft 440 kts 242°
2026-04-15 15:27 50.36895 -59.72064 34222 ft 440 kts 242°
2026-04-15 15:27 50.33562 -59.80093 34230 ft 440 kts 242°
2026-04-15 15:28 50.30198 -59.88169 34227 ft 440 kts 242°
2026-04-15 15:28 50.26861 -59.96159 34224 ft 440 kts 242°
2026-04-15 15:29 50.24063 -60.02836 34205 ft 440 kts 242°
2026-04-15 15:29 50.20710 -60.10816 34221 ft 440 kts 242°
2026-04-15 15:30 50.17334 -60.18830 34227 ft 440 kts 242°
2026-04-15 15:30 50.13979 -60.26769 34227 ft 440 kts 242°
2026-04-15 15:31 50.10589 -60.34766 34232 ft 440 kts 242°
2026-04-15 15:31 50.07218 -60.42688 34228 ft 441 kts 242°
2026-04-15 15:32 50.03820 -60.50658 34234 ft 441 kts 242°
2026-04-15 15:32 50.00425 -60.58597 34230 ft 441 kts 242°
2026-04-15 15:33 49.97006 -60.66566 34230 ft 441 kts 242°
2026-04-15 15:33 49.93592 -60.74498 34185 ft 441 kts 242°
2026-04-15 15:34 49.90190 -60.82372 34218 ft 441 kts 242°
2026-04-15 15:34 49.86763 -60.90291 34225 ft 441 kts 242°
2026-04-15 15:35 49.83346 -60.98163 34227 ft 441 kts 242°
2026-04-15 15:35 49.79903 -61.06070 34226 ft 441 kts 242°
2026-04-15 15:36 49.76473 -61.13922 34224 ft 441 kts 242°
2026-04-15 15:36 49.73009 -61.21828 34221 ft 441 kts 242°
2026-04-15 15:37 49.69567 -61.29661 34225 ft 441 kts 241°
2026-04-15 15:37 49.66121 -61.37481 34219 ft 441 kts 241°
2026-04-15 15:38 49.62649 -61.45334 34190 ft 441 kts 242°
2026-04-15 15:38 49.59173 -61.53168 34212 ft 440 kts 242°
2026-04-15 15:39 49.55721 -61.60934 34213 ft 440 kts 242°
2026-04-15 15:39 49.52246 -61.68730 34213 ft 440 kts 242°
2026-04-15 15:40 49.48772 -61.76499 34211 ft 441 kts 241°
2026-04-15 15:40 49.45296 -61.84239 34197 ft 440 kts 242°
2026-04-15 15:41 49.41829 -61.91947 34206 ft 439 kts 242°
2026-04-15 15:41 49.38338 -61.99689 34206 ft 439 kts 242°
2026-04-15 15:42 49.34867 -62.07362 34202 ft 439 kts 242°
2026-04-15 15:42 49.31376 -62.15055 34155 ft 439 kts 242°
2026-04-15 15:43 49.27879 -62.22728 34199 ft 437 kts 242°
2026-04-15 15:43 49.24401 -62.30353 34196 ft 437 kts 242°
2026-04-15 15:44 49.20923 -62.37956 34193 ft 437 kts 242°
2026-04-15 15:44 49.17425 -62.45573 34190 ft 436 kts 242°
2026-04-15 15:45 49.13947 -62.53126 34173 ft 435 kts 242°
2026-04-15 15:45 49.10448 -62.60707 34183 ft 434 kts 242°
2026-04-15 15:46 49.06971 -62.68225 34186 ft 434 kts 242°
2026-04-15 15:46 49.03462 -62.75787 34180 ft 434 kts 242°
2026-04-15 15:47 48.99973 -62.83283 34120 ft 434 kts 242°
2026-04-15 15:47 48.96486 -62.90732 34168 ft 431 kts 243°
2026-04-15 15:48 48.92999 -62.98190 34171 ft 430 kts 243°
2026-04-15 15:48 48.89537 -63.05572 34172 ft 430 kts 243°
2026-04-15 15:49 48.86051 -63.12982 34172 ft 430 kts 243°
2026-04-15 15:49 48.82569 -63.20342 34149 ft 427 kts 244°
2026-04-15 15:50 48.79103 -63.27671 34160 ft 424 kts 244°
2026-04-15 15:50 48.75678 -63.34909 34177 ft 423 kts 244°
2026-04-15 15:51 48.72260 -63.42096 34161 ft 421 kts 244°
2026-04-15 15:51 48.68821 -63.49312 34159 ft 421 kts 244°
2026-04-15 15:52 48.65396 -63.56443 34149 ft 413 kts 245°
2026-04-15 15:52 48.62041 -63.63449 34155 ft 412 kts 245°
2026-04-15 15:53 48.58664 -63.70486 34156 ft 412 kts 245°
2026-04-15 15:53 48.55296 -63.77479 34158 ft 412 kts 245°
2026-04-15 15:54 48.51917 -63.84471 34109 ft 412 kts 245°
2026-04-15 15:54 48.48532 -63.91454 34147 ft 410 kts 245°
2026-04-15 15:55 48.45163 -63.98390 34154 ft 410 kts 245°
2026-04-15 15:55 48.41798 -64.05301 34148 ft 410 kts 245°
2026-04-15 15:56 48.38427 -64.12202 34144 ft 410 kts 245°
2026-04-15 15:56 48.35049 -64.19104 34123 ft 409 kts 245°
2026-04-15 15:57 48.31663 -64.26001 34137 ft 409 kts 245°
2026-04-15 15:57 48.28286 -64.32860 34143 ft 407 kts 245°
2026-04-15 15:58 48.24908 -64.39706 34143 ft 407 kts 245°
2026-04-15 15:58 48.21527 -64.46546 34140 ft 407 kts 245°
2026-04-15 15:59 48.18159 -64.53338 34138 ft 407 kts 245°
2026-04-15 15:59 48.14780 -64.60135 34139 ft 407 kts 245°
2026-04-15 16:00 48.11385 -64.66950 34135 ft 407 kts 244°
2026-04-15 16:00 48.07996 -64.73733 34135 ft 407 kts 244°
2026-04-15 16:01 48.04606 -64.80503 34088 ft 407 kts 244°
2026-04-15 16:01 48.01209 -64.87271 34122 ft 408 kts 244°
2026-04-15 16:02 47.97788 -64.94066 34133 ft 408 kts 244°
2026-04-15 16:02 47.94390 -65.00800 34129 ft 408 kts 244°
2026-04-15 16:03 47.90957 -65.07586 34123 ft 408 kts 244°
2026-04-15 16:03 47.87542 -65.14325 34093 ft 408 kts 244°
2026-04-15 16:04 47.84126 -65.21047 34123 ft 408 kts 244°
2026-04-15 16:04 47.80681 -65.27802 34124 ft 408 kts 244°
2026-04-15 16:05 47.77253 -65.34512 34121 ft 408 kts 244°
2026-04-15 16:05 47.73801 -65.41251 34121 ft 408 kts 244°
2026-04-15 16:06 47.70372 -65.47940 34103 ft 409 kts 243°
2026-04-15 16:06 47.66911 -65.54663 34110 ft 410 kts 243°
2026-04-15 16:07 47.63430 -65.61405 34127 ft 410 kts 243°
2026-04-15 16:08 47.58230 -65.71452 34138 ft 410 kts 243°
2026-04-15 16:08 47.54747 -65.78172 34119 ft 409 kts 243°
2026-04-15 16:09 47.51291 -65.84809 34130 ft 409 kts 242°
2026-04-15 16:09 47.47802 -65.91492 34132 ft 409 kts 242°
2026-04-15 16:10 47.44332 -65.98127 34124 ft 409 kts 242°
2026-04-15 16:10 47.40849 -66.04773 34063 ft 409 kts 242°
2026-04-15 16:11 47.37374 -66.11397 34093 ft 407 kts 242°
2026-04-15 16:11 47.33890 -66.18005 34087 ft 407 kts 242°
2026-04-15 16:12 47.30409 -66.24593 34088 ft 407 kts 242°
2026-04-15 16:12 47.26915 -66.31193 34079 ft 407 kts 242°
2026-04-15 16:13 47.23437 -66.37753 34064 ft 408 kts 241°
2026-04-15 16:13 47.19914 -66.44379 34062 ft 409 kts 241°
2026-04-15 16:14 47.16415 -66.50939 34065 ft 409 kts 241°
2026-04-15 16:14 47.13477 -66.56438 34065 ft 409 kts 241°
2026-04-15 16:15 47.09373 -66.64100 34061 ft 409 kts 241°
2026-04-15 16:15 47.06438 -66.69570 34035 ft 410 kts 241°
2026-04-15 16:16 47.02903 -66.76138 34048 ft 410 kts 241°
2026-04-15 16:16 46.99345 -66.82733 34045 ft 410 kts 241°
2026-04-15 16:17 46.95806 -66.89279 34055 ft 411 kts 240°
2026-04-15 16:17 46.92345 -66.95908 34014 ft 409 kts 243°
2026-04-15 16:18 46.89343 -67.02888 34035 ft 404 kts 248°
2026-04-15 16:18 46.86839 -67.10231 34039 ft 399 kts 253°
2026-04-15 16:19 46.84879 -67.17748 34038 ft 395 kts 257°
2026-04-15 16:19 46.83318 -67.25436 34039 ft 393 kts 259°
2026-04-15 16:20 46.81781 -67.33120 34035 ft 393 kts 259°
2026-04-15 16:20 46.80255 -67.40763 33998 ft 393 kts 259°
2026-04-15 16:21 46.78714 -67.48475 34018 ft 394 kts 259°
2026-04-15 16:21 46.77172 -67.56179 34031 ft 397 kts 259°
2026-04-15 16:22 46.75615 -67.63919 34042 ft 398 kts 258°
2026-04-15 16:22 46.74048 -67.71682 34050 ft 398 kts 258°
2026-04-15 16:23 46.72486 -67.79392 34035 ft 397 kts 258°
2026-04-15 16:23 46.70909 -67.87148 34052 ft 398 kts 258°
2026-04-15 16:24 46.69331 -67.94876 34038 ft 398 kts 258°
2026-04-15 16:24 46.67742 -68.02614 34050 ft 398 kts 259°
2026-04-15 16:25 46.66155 -68.10329 34043 ft 399 kts 259°
2026-04-15 16:25 46.64562 -68.18055 34046 ft 399 kts 259°
2026-04-15 16:26 46.62957 -68.25802 34044 ft 399 kts 259°
2026-04-15 16:26 46.61356 -68.33502 34050 ft 399 kts 259°
2026-04-15 16:27 46.59735 -68.41259 34047 ft 399 kts 259°
2026-04-15 16:27 46.58110 -68.49007 34026 ft 400 kts 259°
2026-04-15 16:28 46.56474 -68.56742 34041 ft 401 kts 260°
2026-04-15 16:28 46.54832 -68.64527 34044 ft 400 kts 260°
2026-04-15 16:29 46.53200 -68.72240 34043 ft 400 kts 260°
2026-04-15 16:29 46.51558 -68.79961 34042 ft 400 kts 260°
2026-04-15 16:30 46.49899 -68.87728 34045 ft 401 kts 259°
2026-04-15 16:30 46.48246 -68.95438 34041 ft 401 kts 259°
2026-04-15 16:31 46.46583 -69.03141 34018 ft 401 kts 260°
2026-04-15 16:31 46.44906 -69.10907 34029 ft 402 kts 260°
2026-04-15 16:32 46.43231 -69.18638 34026 ft 402 kts 260°
2026-04-15 16:32 46.41542 -69.26398 34031 ft 402 kts 260°
2026-04-15 16:33 46.39861 -69.34092 34030 ft 402 kts 260°
2026-04-15 16:33 46.38166 -69.41820 34027 ft 402 kts 260°
2026-04-15 16:34 46.36460 -69.49574 34032 ft 402 kts 260°
2026-04-15 16:34 46.34756 -69.57252 34004 ft 397 kts 260°
2026-04-15 16:35 46.33079 -69.64815 34012 ft 394 kts 261°
2026-04-15 16:35 46.31393 -69.72405 34015 ft 394 kts 260°
2026-04-15 16:36 46.29715 -69.79927 34002 ft 394 kts 260°
2026-04-15 16:36 46.28028 -69.87458 34005 ft 394 kts 260°
2026-04-15 16:37 46.26326 -69.95029 34008 ft 394 kts 260°
2026-04-15 16:37 46.24629 -70.02547 34003 ft 394 kts 260°
2026-04-15 16:38 46.22920 -70.10117 34001 ft 395 kts 259°
2026-04-15 16:38 46.21208 -70.17639 34004 ft 395 kts 259°
2026-04-15 16:39 46.19490 -70.25162 34006 ft 395 kts 259°
2026-04-15 16:39 46.17769 -70.32674 34007 ft 395 kts 259°
2026-04-15 16:40 46.16037 -70.40212 34002 ft 395 kts 259°
2026-04-15 16:40 46.14305 -70.47725 34004 ft 395 kts 259°
2026-04-15 16:41 46.12555 -70.55290 34003 ft 395 kts 259°
2026-04-15 16:41 46.10810 -70.62833 34000 ft 398 kts 258°
2026-04-15 16:42 46.09044 -70.70404 34005 ft 399 kts 258°
2026-04-15 16:42 46.07262 -70.78020 34010 ft 399 kts 258°
2026-04-15 16:43 46.05488 -70.85578 34012 ft 399 kts 258°
2026-04-15 16:43 46.03706 -70.93144 34012 ft 399 kts 258°
2026-04-15 16:44 46.01909 -71.00751 34014 ft 400 kts 258°
2026-04-15 16:44 46.00119 -71.08309 33976 ft 400 kts 257°
2026-04-15 16:45 45.98321 -71.15884 34007 ft 401 kts 257°
2026-04-15 16:45 45.96500 -71.23470 34024 ft 401 kts 257°
2026-04-15 16:46 45.94672 -71.31082 34025 ft 401 kts 257°
2026-04-15 16:46 45.92853 -71.38641 34035 ft 401 kts 257°
2026-04-15 16:47 45.91029 -71.46201 34036 ft 401 kts 257°
2026-04-15 16:47 45.89185 -71.53820 34035 ft 401 kts 257°
2026-04-15 16:48 45.87359 -71.61369 34027 ft 401 kts 256°
2026-04-15 16:48 45.85521 -71.68915 34035 ft 401 kts 256°
2026-04-15 16:49 45.83664 -71.76499 34036 ft 401 kts 256°
2026-04-15 16:49 45.81806 -71.84070 34035 ft 401 kts 255°
2026-04-15 16:50 45.79953 -71.91601 34038 ft 401 kts 255°
2026-04-15 16:50 45.78085 -71.99167 34035 ft 401 kts 255°
2026-04-15 16:51 45.76221 -72.06693 34032 ft 402 kts 255°
2026-04-15 16:51 45.74340 -72.14292 34022 ft 404 kts 254°
2026-04-15 16:52 45.72456 -72.21835 34014 ft 404 kts 254°
2026-04-15 16:52 45.70550 -72.29447 34020 ft 404 kts 254°
2026-04-15 16:53 45.68656 -72.36987 34008 ft 404 kts 254°
2026-04-15 16:53 45.66753 -72.44542 34003 ft 404 kts 254°
2026-04-15 16:54 45.64833 -72.52139 34005 ft 404 kts 254°
2026-04-15 16:54 45.62923 -72.59676 33962 ft 404 kts 254°
2026-04-15 16:55 45.60988 -72.67293 33971 ft 407 kts 254°
2026-04-15 16:55 45.59047 -72.74896 33973 ft 408 kts 253°
2026-04-15 16:56 45.57100 -72.82498 33976 ft 408 kts 253°
2026-04-15 16:56 45.55140 -72.90127 33972 ft 408 kts 253°
2026-04-15 16:57 45.53187 -72.97703 33975 ft 408 kts 253°
2026-04-15 16:57 45.51217 -73.05322 33982 ft 407 kts 253°
2026-04-15 16:58 45.49255 -73.12879 34003 ft 406 kts 253°
2026-04-15 16:58 45.47282 -73.20464 34010 ft 406 kts 253°
2026-04-15 16:59 45.45316 -73.27999 34009 ft 407 kts 253°
2026-04-15 16:59 45.43333 -73.35572 34014 ft 407 kts 253°
2026-04-15 17:00 45.41352 -73.43112 34017 ft 406 kts 253°
2026-04-15 17:00 45.39369 -73.50633 34017 ft 406 kts 253°
2026-04-15 17:01 45.37384 -73.58121 33948 ft 405 kts 254°
2026-04-15 17:01 45.35390 -73.65665 33970 ft 408 kts 254°
2026-04-15 17:02 45.33388 -73.73201 33973 ft 408 kts 254°
2026-04-15 17:02 45.31368 -73.80769 33985 ft 408 kts 254°
2026-04-15 17:03 45.29685 -73.87059 33986 ft 408 kts 254°
2026-04-15 17:03 45.27324 -73.95851 33991 ft 408 kts 254°
2026-04-15 17:04 45.25639 -74.02107 33988 ft 408 kts 254°
2026-04-15 17:04 45.23597 -74.09658 33979 ft 408 kts 254°
2026-04-15 17:05 45.21564 -74.17157 33981 ft 408 kts 254°
2026-04-15 17:05 45.19507 -74.24723 33985 ft 408 kts 254°
2026-04-15 17:06 45.17458 -74.32238 33981 ft 408 kts 254°
2026-04-15 17:06 45.15407 -74.39735 33976 ft 408 kts 254°
2026-04-15 17:07 45.13357 -74.47204 33974 ft 408 kts 254°
2026-04-15 17:07 45.11283 -74.54739 33940 ft 408 kts 253°
2026-04-15 17:08 45.09214 -74.62232 33968 ft 411 kts 253°
2026-04-15 17:08 45.07121 -74.69786 33966 ft 411 kts 253°
2026-04-15 17:09 45.05037 -74.77285 33978 ft 411 kts 253°
2026-04-15 17:09 45.02932 -74.84833 33986 ft 411 kts 253°
2026-04-15 17:10 45.00834 -74.92338 33977 ft 411 kts 253°
2026-04-15 17:10 44.98733 -74.99825 33929 ft 410 kts 253°
2026-04-15 17:11 44.96618 -75.07338 33956 ft 410 kts 253°
2026-04-15 17:11 44.94509 -75.14813 33959 ft 411 kts 253°
2026-04-15 17:12 44.91324 -75.26058 33931 ft 411 kts 253°
2026-04-15 17:12 44.89200 -75.33529 33918 ft 411 kts 253°
2026-04-15 17:13 44.87063 -75.41024 33914 ft 410 kts 253°
2026-04-15 17:13 44.84924 -75.48503 33905 ft 408 kts 253°
2026-04-15 17:14 44.82795 -75.55917 33896 ft 409 kts 253°
2026-04-15 17:14 44.80659 -75.63337 33900 ft 409 kts 253°
2026-04-15 17:15 44.78508 -75.70790 33901 ft 409 kts 253°
2026-04-15 17:15 44.76369 -75.78179 33909 ft 409 kts 253°
2026-04-15 17:16 44.74203 -75.85636 33924 ft 409 kts 253°
2026-04-15 17:16 44.72054 -75.93017 33924 ft 408 kts 252°
2026-04-15 17:17 44.69901 -76.00388 33912 ft 408 kts 252°
2026-04-15 17:17 44.67725 -76.07812 33930 ft 409 kts 252°
2026-04-15 17:18 44.65561 -76.15176 33934 ft 409 kts 252°
2026-04-15 17:18 44.63389 -76.22544 33935 ft 409 kts 252°
2026-04-15 17:19 44.61201 -76.29948 33932 ft 409 kts 252°
2026-04-15 17:19 44.59014 -76.37325 33939 ft 407 kts 252°
2026-04-15 17:20 44.56838 -76.44643 33907 ft 407 kts 252°
2026-04-15 17:20 44.54645 -76.52002 33933 ft 408 kts 252°
2026-04-15 17:21 44.52459 -76.59309 33936 ft 408 kts 252°
2026-04-15 17:21 44.50261 -76.66635 33935 ft 408 kts 252°
2026-04-15 17:22 44.48056 -76.73968 33935 ft 408 kts 252°
2026-04-15 17:22 44.45858 -76.81258 33935 ft 406 kts 252°
2026-04-15 17:23 44.43645 -76.88571 33937 ft 406 kts 251°
2026-04-15 17:23 44.41434 -76.95862 33925 ft 406 kts 251°
2026-04-15 17:24 44.39223 -77.03127 33927 ft 406 kts 251°
2026-04-15 17:24 44.36995 -77.10427 33931 ft 406 kts 251°
2026-04-15 17:25 44.34778 -77.17673 33930 ft 407 kts 251°
2026-04-15 17:25 44.32544 -77.24954 33933 ft 405 kts 251°
2026-04-15 17:26 44.30332 -77.32143 33926 ft 405 kts 251°
2026-04-15 17:26 44.28093 -77.39405 33917 ft 406 kts 251°
2026-04-15 17:27 44.25856 -77.46633 33928 ft 406 kts 251°
2026-04-15 17:27 44.23601 -77.53897 33932 ft 407 kts 251°
2026-04-15 17:28 44.21353 -77.61123 33935 ft 407 kts 250°
2026-04-15 17:28 44.19092 -77.68374 33933 ft 406 kts 250°
2026-04-15 17:29 44.16838 -77.75574 33930 ft 406 kts 250°
2026-04-15 17:29 44.14580 -77.82766 33923 ft 406 kts 250°
2026-04-15 17:30 44.12302 -77.90004 33920 ft 406 kts 250°
2026-04-15 17:30 44.10033 -77.97194 33940 ft 406 kts 250°
2026-04-15 17:31 44.07771 -78.04349 33926 ft 405 kts 250°
2026-04-15 17:31 44.05488 -78.11542 33918 ft 405 kts 250°
2026-04-15 17:32 44.03214 -78.18688 33918 ft 405 kts 250°
2026-04-15 17:32 44.00927 -78.25859 33894 ft 405 kts 250°
2026-04-15 17:33 43.98630 -78.33041 33917 ft 406 kts 249°
2026-04-15 17:33 43.96336 -78.40191 33922 ft 407 kts 249°
2026-04-15 17:34 43.94022 -78.47386 33923 ft 407 kts 249°
2026-04-15 17:34 43.91717 -78.54533 33924 ft 407 kts 249°
2026-04-15 17:35 43.89392 -78.61723 33928 ft 407 kts 249°
2026-04-15 17:35 43.87076 -78.68864 33945 ft 407 kts 249°
2026-04-15 17:36 43.84764 -78.75991 33925 ft 406 kts 249°
2026-04-15 17:36 43.82424 -78.83162 33933 ft 407 kts 249°
2026-04-15 17:37 43.80091 -78.90293 33935 ft 407 kts 249°
2026-04-15 17:37 43.77742 -78.97458 33934 ft 407 kts 248°
2026-04-15 17:38 43.75413 -79.04546 33936 ft 407 kts 248°
2026-04-15 17:38 43.73060 -79.11691 33940 ft 406 kts 248°
2026-04-15 17:39 43.70725 -79.18751 33917 ft 406 kts 248°
2026-04-15 17:39 43.68404 -79.25905 33929 ft 406 kts 250°
2026-04-15 17:40 43.66472 -79.33212 33940 ft 405 kts 253°
2026-04-15 17:40 43.64995 -79.40770 33928 ft 405 kts 258°
2026-04-15 17:41 43.64006 -79.48408 33933 ft 406 kts 261°
2026-04-15 17:41 43.63191 -79.56153 33936 ft 406 kts 261°
2026-04-15 17:42 43.62382 -79.63861 33934 ft 406 kts 261°
2026-04-15 17:42 43.61570 -79.71608 33934 ft 406 kts 261°
2026-04-15 17:43 43.60761 -79.79319 33934 ft 406 kts 261°
2026-04-15 17:43 43.59946 -79.87036 33934 ft 408 kts 261°
2026-04-15 17:44 43.59118 -79.94834 33932 ft 409 kts 261°
2026-04-15 17:44 43.58290 -80.02579 33913 ft 410 kts 261°
2026-04-15 17:45 43.57449 -80.10404 33924 ft 411 kts 261°
2026-04-15 17:45 43.56605 -80.18185 33907 ft 411 kts 261°
2026-04-15 17:46 43.55752 -80.26007 33912 ft 411 kts 261°
2026-04-15 17:46 43.54899 -80.33788 33916 ft 411 kts 261°
2026-04-15 17:47 43.54037 -80.41605 33910 ft 412 kts 261°
2026-04-15 17:47 43.53170 -80.49412 33916 ft 412 kts 261°
2026-04-15 17:48 43.52295 -80.57235 33914 ft 411 kts 261°
2026-04-15 17:48 43.51566 -80.63722 33929 ft 411 kts 261°
2026-04-15 17:49 43.50687 -80.71485 33922 ft 410 kts 261°
2026-04-15 17:49 43.49799 -80.79294 33939 ft 411 kts 261°
2026-04-15 17:50 43.48911 -80.87040 33919 ft 411 kts 261°
2026-04-15 17:50 43.48013 -80.94834 33928 ft 410 kts 261°
2026-04-15 17:51 43.47116 -81.02588 33913 ft 412 kts 260°
2026-04-15 17:51 43.46204 -81.10397 33924 ft 412 kts 260°
2026-04-15 17:52 43.45290 -81.18181 33918 ft 412 kts 260°
2026-04-15 17:52 43.44365 -81.26009 33914 ft 412 kts 260°
2026-04-15 17:53 43.43441 -81.33783 33924 ft 411 kts 260°
2026-04-15 17:53 43.42514 -81.41543 33911 ft 411 kts 260°
2026-04-15 17:54 43.41578 -81.49324 33913 ft 411 kts 260°
2026-04-15 17:54 43.40640 -81.57077 33923 ft 411 kts 260°
2026-04-15 17:55 43.39692 -81.64877 33912 ft 411 kts 260°
2026-04-15 17:55 43.38745 -81.72615 33914 ft 410 kts 260°
2026-04-15 17:56 43.37788 -81.80388 33912 ft 410 kts 260°
2026-04-15 17:56 43.36832 -81.88106 33911 ft 410 kts 260°
2026-04-15 17:57 43.35871 -81.95820 33903 ft 410 kts 260°
2026-04-15 17:57 43.34903 -82.03557 33887 ft 411 kts 260°
2026-04-15 17:58 43.33925 -82.11316 33890 ft 412 kts 259°
2026-04-15 17:58 43.32938 -82.19102 33899 ft 412 kts 259°
2026-04-15 17:59 43.31950 -82.26851 33895 ft 412 kts 259°
2026-04-15 17:59 43.30953 -82.34629 33902 ft 412 kts 259°
2026-04-15 18:00 43.29959 -82.42346 33897 ft 412 kts 259°
2026-04-15 18:00 43.28957 -82.50079 33889 ft 412 kts 259°
2026-04-15 18:01 43.27941 -82.57853 33877 ft 412 kts 259°
2026-04-15 18:01 43.26893 -82.65569 33881 ft 411 kts 257°
2026-04-15 18:02 43.25439 -82.73145 33871 ft 411 kts 253°
2026-04-15 18:02 43.23510 -82.80552 33878 ft 411 kts 250°
2026-04-15 18:03 43.21466 -82.87901 33863 ft 411 kts 250°
2026-04-15 18:03 43.19418 -82.95218 33855 ft 412 kts 250°
2026-04-15 18:04 43.17356 -83.02540 33867 ft 413 kts 250°
2026-04-15 18:04 43.15279 -83.09887 33871 ft 413 kts 250°
2026-04-15 18:05 43.13194 -83.17239 33887 ft 412 kts 249°
2026-04-15 18:05 43.11131 -83.24494 33879 ft 409 kts 249°
2026-04-15 18:06 43.09048 -83.31787 33886 ft 409 kts 249°
2026-04-15 18:06 43.06975 -83.39029 33889 ft 409 kts 249°
2026-04-15 18:07 43.04901 -83.46253 33899 ft 409 kts 249°
2026-04-15 18:07 43.02805 -83.53533 33910 ft 412 kts 249°
2026-04-15 18:08 43.00719 -83.60770 33908 ft 408 kts 249°
2026-04-15 18:08 42.99045 -83.68176 33909 ft 409 kts 256°
2026-04-15 18:09 42.98088 -83.75859 33907 ft 410 kts 262°
2026-04-15 18:09 42.97877 -83.83642 33901 ft 412 kts 268°
2026-04-15 18:10 42.98406 -83.91510 33918 ft 415 kts 273°
2026-04-15 18:10 42.99171 -83.99280 33881 ft 414 kts 273°
2026-04-15 18:11 42.99945 -84.07097 33891 ft 414 kts 273°
2026-04-15 18:11 43.00719 -84.14891 33873 ft 414 kts 273°
2026-04-15 18:12 43.01487 -84.22652 33877 ft 414 kts 273°
2026-04-15 18:12 43.02257 -84.30471 33897 ft 414 kts 273°
2026-04-15 18:13 43.03024 -84.38304 33880 ft 414 kts 273°
2026-04-15 18:14 43.04155 -84.49988 33875 ft 414 kts 273°
2026-04-15 18:14 43.04908 -84.57822 33873 ft 414 kts 272°
2026-04-15 18:15 43.05651 -84.65616 33871 ft 414 kts 272°
2026-04-15 18:15 43.06393 -84.73461 33874 ft 413 kts 273°
2026-04-15 18:16 43.07125 -84.81239 33871 ft 413 kts 272°
2026-04-15 18:16 43.07853 -84.89042 33869 ft 413 kts 272°
2026-04-15 18:17 43.08574 -84.96831 33870 ft 413 kts 272°
2026-04-15 18:17 43.09293 -85.04653 33876 ft 413 kts 272°
2026-04-15 18:18 43.10005 -85.12468 33876 ft 412 kts 272°
2026-04-15 18:18 43.10705 -85.20212 33877 ft 412 kts 272°
2026-04-15 18:19 43.11403 -85.27984 33882 ft 411 kts 272°
2026-04-15 18:19 43.12100 -85.35798 33874 ft 411 kts 272°
2026-04-15 18:20 43.12785 -85.43547 33883 ft 411 kts 272°
2026-04-15 18:20 43.13476 -85.51352 33877 ft 409 kts 271°
2026-04-15 18:21 43.14142 -85.59059 33871 ft 409 kts 271°
2026-04-15 18:21 43.14809 -85.66791 33895 ft 408 kts 271°
2026-04-15 18:22 43.15469 -85.74490 33862 ft 406 kts 271°
2026-04-15 18:22 43.16121 -85.82195 33867 ft 405 kts 271°
2026-04-15 18:23 43.16768 -85.89888 33872 ft 405 kts 271°
2026-04-15 18:23 43.17407 -85.97535 33888 ft 405 kts 271°
2026-04-15 18:24 43.18042 -86.05206 33903 ft 405 kts 271°
2026-04-15 18:24 43.18669 -86.12847 33916 ft 405 kts 271°
2026-04-15 18:25 43.19297 -86.20549 33917 ft 405 kts 270°
2026-04-15 18:25 43.19655 -86.28265 33825 ft 403 kts 266°
2026-04-15 18:26 43.19537 -86.35907 33840 ft 401 kts 263°
2026-04-15 18:26 43.19298 -86.43544 33835 ft 401 kts 263°
2026-04-15 18:27 43.19050 -86.51175 33840 ft 401 kts 263°
2026-04-15 18:27 43.18793 -86.58822 33881 ft 399 kts 263°
2026-04-15 18:28 43.18533 -86.66386 33863 ft 395 kts 263°
2026-04-15 18:28 43.18266 -86.73889 33858 ft 394 kts 263°
2026-04-15 18:29 43.17991 -86.81428 33850 ft 398 kts 263°
2026-04-15 18:29 43.17712 -86.89016 33857 ft 399 kts 263°
2026-04-15 18:30 43.17428 -86.96634 33901 ft 397 kts 263°
2026-04-15 18:30 43.17146 -87.04080 33871 ft 390 kts 263°
2026-04-15 18:31 43.16859 -87.11483 33866 ft 389 kts 263°
2026-04-15 18:31 43.16565 -87.18923 33866 ft 389 kts 262°
2026-04-15 18:32 43.16268 -87.26329 33862 ft 389 kts 262°
2026-04-15 18:32 43.15966 -87.33722 33874 ft 389 kts 263°
2026-04-15 18:33 43.15658 -87.41110 33864 ft 389 kts 263°
2026-04-15 18:33 43.15348 -87.48526 33853 ft 389 kts 263°
2026-04-15 18:34 43.15033 -87.55933 33850 ft 389 kts 263°
2026-04-15 18:34 43.14712 -87.63349 33860 ft 389 kts 263°
2026-04-15 18:35 43.14387 -87.70746 33858 ft 389 kts 263°
2026-04-15 18:35 43.14055 -87.78172 33871 ft 392 kts 263°
2026-04-15 18:36 43.13719 -87.85609 33873 ft 393 kts 263°
2026-04-15 18:36 43.13374 -87.93118 33876 ft 393 kts 263°
2026-04-15 18:37 43.13027 -88.00563 33878 ft 393 kts 262°
2026-04-15 18:37 43.12673 -88.08065 33879 ft 393 kts 262°
2026-04-15 18:38 43.12317 -88.15522 33886 ft 394 kts 262°
2026-04-15 18:38 43.12012 -88.21768 33885 ft 395 kts 262°
2026-04-15 18:39 43.11753 -88.29311 33886 ft 397 kts 265°
2026-04-15 18:39 43.11844 -88.36877 33881 ft 398 kts 266°
2026-04-15 18:40 43.11963 -88.44475 33868 ft 397 kts 266°
2026-04-15 18:40 43.12083 -88.52035 33873 ft 398 kts 266°
2026-04-15 18:41 43.12197 -88.59656 33863 ft 399 kts 266°
2026-04-15 18:41 43.12306 -88.67225 33850 ft 399 kts 266°
2026-04-15 18:42 43.12412 -88.74847 33844 ft 399 kts 266°
2026-04-15 18:42 43.12512 -88.82416 33849 ft 398 kts 266°
2026-04-15 18:43 43.12615 -88.90046 33847 ft 397 kts 265°
2026-04-15 18:43 43.12704 -88.97582 33847 ft 396 kts 265°
2026-04-15 18:44 43.12786 -89.05131 33854 ft 396 kts 265°
2026-04-15 18:44 43.12865 -89.12645 33844 ft 396 kts 265°
2026-04-15 18:45 43.12941 -89.20226 33854 ft 396 kts 265°
2026-04-15 18:45 43.13016 -89.27745 33846 ft 396 kts 264°
2026-04-15 18:46 43.13079 -89.35337 33860 ft 396 kts 264°
2026-04-15 18:46 43.13138 -89.42873 33859 ft 396 kts 263°
2026-04-15 18:47 43.13193 -89.50466 33847 ft 396 kts 263°
2026-04-15 18:47 43.13243 -89.57990 33855 ft 397 kts 263°
2026-04-15 18:48 43.13289 -89.65576 33842 ft 397 kts 263°
2026-04-15 18:48 43.13329 -89.73123 33856 ft 397 kts 263°
2026-04-15 18:49 43.13364 -89.80702 33839 ft 397 kts 263°
2026-04-15 18:49 43.13395 -89.88250 33852 ft 396 kts 263°
2026-04-15 18:50 43.13421 -89.95795 33839 ft 396 kts 263°
2026-04-15 18:50 43.13444 -90.03370 33844 ft 397 kts 263°
2026-04-15 18:51 43.13459 -90.10929 33839 ft 398 kts 263°
2026-04-15 18:51 43.13466 -90.18547 33841 ft 398 kts 263°
2026-04-15 18:52 43.13472 -90.26102 33841 ft 398 kts 263°
2026-04-15 18:52 43.13471 -90.33696 33840 ft 398 kts 263°
2026-04-15 18:53 43.13468 -90.41305 33859 ft 397 kts 262°
2026-04-15 18:53 43.13460 -90.48849 33844 ft 397 kts 262°
2026-04-15 18:54 43.13444 -90.56443 33844 ft 397 kts 262°
2026-04-15 18:54 43.13424 -90.64004 33842 ft 397 kts 262°
2026-04-15 18:55 43.13400 -90.71560 33839 ft 397 kts 262°
2026-04-15 18:55 43.13374 -90.79164 33856 ft 396 kts 261°
2026-04-15 18:56 43.13342 -90.86707 33841 ft 395 kts 261°
2026-04-15 18:56 43.13298 -90.94243 33827 ft 396 kts 261°
2026-04-15 18:57 43.13251 -91.01765 33833 ft 396 kts 261°
2026-04-15 18:57 43.13201 -91.09291 33828 ft 395 kts 261°
2026-04-15 18:58 43.13146 -91.16860 33847 ft 396 kts 261°
2026-04-15 18:58 43.13085 -91.24421 33834 ft 398 kts 261°
2026-04-15 18:59 43.13022 -91.32036 33831 ft 398 kts 261°
2026-04-15 18:59 43.12953 -91.39599 33832 ft 397 kts 261°
2026-04-15 19:00 43.12879 -91.47190 33829 ft 397 kts 261°
2026-04-15 19:00 43.12799 -91.54748 33857 ft 397 kts 261°
2026-04-15 19:01 43.12715 -91.62294 33831 ft 397 kts 261°
2026-04-15 19:01 43.12625 -91.69877 33826 ft 397 kts 261°
2026-04-15 19:02 43.12531 -91.77445 33825 ft 397 kts 261°
2026-04-15 19:02 43.12432 -91.84969 33824 ft 396 kts 260°
2026-04-15 19:03 43.12327 -91.92545 33853 ft 396 kts 260°
2026-04-15 19:03 43.12220 -92.00067 33828 ft 396 kts 260°
2026-04-15 19:04 43.12104 -92.07625 33824 ft 396 kts 260°
2026-04-15 19:04 43.11983 -92.15207 33847 ft 400 kts 260°
2026-04-15 19:04 43.11919 -92.19031 34170 ft 400 kts 260°
2026-04-15 19:05 43.11858 -92.22794 34679 ft 396 kts 260°
2026-04-15 19:05 43.11795 -92.26574 35154 ft 394 kts 260°
2026-04-15 19:05 43.11730 -92.30343 35571 ft 394 kts 260°
2026-04-15 19:05 43.11664 -92.34074 35810 ft 397 kts 260°
2026-04-15 19:06 43.11594 -92.37882 35816 ft 399 kts 260°
2026-04-15 19:06 43.11453 -92.45498 35827 ft 399 kts 260°
2026-04-15 19:07 43.11310 -92.53093 35812 ft 399 kts 260°
2026-04-15 19:07 43.11160 -92.60669 35811 ft 399 kts 260°
2026-04-15 19:08 43.11005 -92.68297 35849 ft 399 kts 259°
2026-04-15 19:08 43.10844 -92.75898 35823 ft 401 kts 259°
2026-04-15 19:09 43.10677 -92.83572 35805 ft 401 kts 259°
2026-04-15 19:09 43.10506 -92.91182 35804 ft 401 kts 259°
2026-04-15 19:10 43.10329 -92.98864 35804 ft 401 kts 259°
2026-04-15 19:10 43.10148 -93.06465 35862 ft 401 kts 259°
2026-04-15 19:11 43.09959 -93.14120 35833 ft 403 kts 259°
2026-04-15 19:11 43.09767 -93.21771 35832 ft 403 kts 259°
2026-04-15 19:12 43.09567 -93.29492 35832 ft 403 kts 259°
2026-04-15 19:12 43.09080 -93.37076 35831 ft 398 kts 255°
2026-04-15 19:13 43.08391 -93.44578 35827 ft 399 kts 255°
2026-04-15 19:13 43.07689 -93.52158 35826 ft 399 kts 255°
2026-04-15 19:14 43.06983 -93.59685 35832 ft 399 kts 255°
2026-04-15 19:14 43.06272 -93.67196 35830 ft 398 kts 255°
2026-04-15 19:15 43.05555 -93.74699 35827 ft 398 kts 255°
2026-04-15 19:15 43.04833 -93.82208 35841 ft 399 kts 255°
2026-04-15 19:16 43.04096 -93.89793 35813 ft 401 kts 255°
2026-04-15 19:16 43.03360 -93.97344 35808 ft 402 kts 255°
2026-04-15 19:17 43.02616 -94.04926 35799 ft 401 kts 255°
2026-04-15 19:17 43.01869 -94.12486 35799 ft 401 kts 255°
2026-04-15 19:18 43.01116 -94.20040 35817 ft 402 kts 255°
2026-04-15 19:18 42.99957 -94.31548 35797 ft 408 kts 255°
2026-04-15 19:19 42.99180 -94.39230 35846 ft 412 kts 255°
2026-04-15 19:19 42.98783 -94.43120 36198 ft 411 kts 255°
2026-04-15 19:19 42.98389 -94.46990 36651 ft 408 kts 255°
2026-04-15 19:20 42.97993 -94.50845 37019 ft 408 kts 255°
2026-04-15 19:20 42.97601 -94.54653 37315 ft 409 kts 255°
2026-04-15 19:20 42.97202 -94.58509 37606 ft 410 kts 255°
2026-04-15 19:20 42.96796 -94.62402 37778 ft 413 kts 255°
2026-04-15 19:21 42.95983 -94.70204 37825 ft 416 kts 255°
2026-04-15 19:21 42.95166 -94.78029 37824 ft 417 kts 255°
2026-04-15 19:22 42.94336 -94.85897 37819 ft 417 kts 255°
2026-04-15 19:22 42.93507 -94.93703 37813 ft 417 kts 255°
2026-04-15 19:23 42.92662 -95.01560 37816 ft 419 kts 256°
2026-04-15 19:23 42.91810 -95.09472 37813 ft 420 kts 256°
2026-04-15 19:24 42.90958 -95.17337 37809 ft 420 kts 255°
2026-04-15 19:24 42.90100 -95.25202 37801 ft 420 kts 255°
2026-04-15 19:25 42.89228 -95.33135 37802 ft 421 kts 255°
2026-04-15 19:25 42.88351 -95.41042 37805 ft 423 kts 256°
2026-04-15 19:26 42.87470 -95.48964 37798 ft 423 kts 256°
2026-04-15 19:26 42.86726 -95.55607 37797 ft 423 kts 255°
2026-04-15 19:27 42.85834 -95.63529 37799 ft 423 kts 255°
2026-04-15 19:27 42.84931 -95.71491 37819 ft 423 kts 255°
2026-04-15 19:28 42.84024 -95.79414 37802 ft 425 kts 256°
2026-04-15 19:28 42.83106 -95.87418 37805 ft 425 kts 256°
2026-04-15 19:29 42.82190 -95.95345 37807 ft 425 kts 255°
2026-04-15 19:29 42.81263 -96.03323 37813 ft 425 kts 255°
2026-04-15 19:30 42.80331 -96.11265 37836 ft 425 kts 256°
2026-04-15 19:30 42.79385 -96.19273 37818 ft 426 kts 256°
2026-04-15 19:31 42.78447 -96.27208 37817 ft 426 kts 256°
2026-04-15 19:31 42.77497 -96.35185 37811 ft 426 kts 256°
2026-04-15 19:32 42.76537 -96.43191 37804 ft 426 kts 256°
2026-04-15 19:32 42.75575 -96.51154 37811 ft 429 kts 256°
2026-04-15 19:33 42.74594 -96.59221 37799 ft 430 kts 256°
2026-04-15 19:33 42.73617 -96.67227 37802 ft 430 kts 256°
2026-04-15 19:34 42.72631 -96.75259 37805 ft 430 kts 256°
2026-04-15 19:34 42.71632 -96.83338 37803 ft 430 kts 256°
2026-04-15 19:35 42.70627 -96.91381 37808 ft 435 kts 256°
2026-04-15 19:35 42.69606 -96.99553 37803 ft 437 kts 256°
2026-04-15 19:36 42.68584 -97.07679 37516 ft 437 kts 256°
2026-04-15 19:36 42.68074 -97.11724 37263 ft 437 kts 256°
2026-04-15 19:36 42.67558 -97.15801 37009 ft 436 kts 256°
2026-04-15 19:37 42.67039 -97.19888 36751 ft 436 kts 256°
2026-04-15 19:37 42.66520 -97.23956 36491 ft 436 kts 255°
2026-04-15 19:37 42.66000 -97.28029 36245 ft 435 kts 255°
2026-04-15 19:37 42.65483 -97.32054 36005 ft 435 kts 255°
2026-04-15 19:38 42.64961 -97.36110 35847 ft 435 kts 255°
2026-04-15 19:38 42.64435 -97.40182 35837 ft 435 kts 255°
2026-04-15 19:38 42.63385 -97.48271 35845 ft 435 kts 255°
2026-04-15 19:39 42.62332 -97.56337 35846 ft 435 kts 255°
2026-04-15 19:39 42.61254 -97.64495 35848 ft 441 kts 256°
2026-04-15 19:40 42.60172 -97.72710 35844 ft 443 kts 256°
2026-04-15 19:40 42.59085 -97.80937 35837 ft 443 kts 256°
2026-04-15 19:41 42.57982 -97.89213 35843 ft 443 kts 256°
2026-04-15 19:41 42.56881 -97.97423 35850 ft 443 kts 256°
2026-04-15 19:42 42.55761 -98.05677 35830 ft 448 kts 256°
2026-04-15 19:42 42.54636 -98.13990 35829 ft 448 kts 256°
2026-04-15 19:43 42.53496 -98.22356 35820 ft 449 kts 256°
2026-04-15 19:43 42.52359 -98.30641 35819 ft 448 kts 256°
2026-04-15 19:44 42.51204 -98.38966 35816 ft 452 kts 257°
2026-04-15 19:44 42.50031 -98.47420 35820 ft 454 kts 257°
2026-04-15 19:45 42.48862 -98.55824 35822 ft 454 kts 257°
2026-04-15 19:45 42.47680 -98.64239 35823 ft 454 kts 257°
2026-04-15 19:46 42.46654 -98.72722 35836 ft 455 kts 260°
2026-04-15 19:46 42.45798 -98.81291 35824 ft 458 kts 260°
2026-04-15 19:47 42.44950 -98.89832 35816 ft 459 kts 260°
2026-04-15 19:47 42.44091 -98.98387 35807 ft 459 kts 260°
2026-04-15 19:48 42.43222 -99.06970 35797 ft 459 kts 260°
2026-04-15 19:48 42.42343 -99.15515 35790 ft 461 kts 261°
2026-04-15 19:49 42.41459 -99.24121 35782 ft 461 kts 261°
2026-04-15 19:49 42.40564 -99.32763 35782 ft 461 kts 261°
2026-04-15 19:50 42.39669 -99.41336 35777 ft 461 kts 260°
2026-04-15 19:50 42.38756 -99.49965 35778 ft 463 kts 261°
2026-04-15 19:51 42.37833 -99.58646 35766 ft 465 kts 261°
2026-04-15 19:51 42.36912 -99.67294 35775 ft 465 kts 261°
2026-04-15 19:52 42.35984 -99.75931 35783 ft 465 kts 261°
2026-04-15 19:52 42.35046 -99.84583 35789 ft 465 kts 261°
2026-04-15 19:53 42.34085 -99.93310 35783 ft 468 kts 262°
2026-04-15 19:53 42.33136 -100.01980 35786 ft 468 kts 262°
2026-04-15 19:54 42.32175 -100.10677 35776 ft 468 kts 262°
2026-04-15 19:54 42.31205 -100.19371 35781 ft 468 kts 262°
2026-04-15 19:55 42.30214 -100.28125 35779 ft 470 kts 262°
2026-04-15 19:55 42.29228 -100.36863 35785 ft 471 kts 262°
2026-04-15 19:56 42.28236 -100.45596 35788 ft 471 kts 262°
2026-04-15 19:56 42.27231 -100.54361 35788 ft 471 kts 262°
2026-04-15 19:57 42.26213 -100.63123 35786 ft 471 kts 263°
2026-04-15 19:57 42.25195 -100.71880 35790 ft 472 kts 263°
2026-04-15 19:58 42.24171 -100.80639 35785 ft 472 kts 263°
2026-04-15 19:58 42.23142 -100.89369 35785 ft 472 kts 262°
2026-04-15 19:59 42.22098 -100.98166 35785 ft 472 kts 262°
2026-04-15 19:59 42.21056 -101.06879 35785 ft 472 kts 262°
2026-04-15 20:00 42.20000 -101.15645 35784 ft 472 kts 262°
2026-04-15 20:00 42.18944 -101.24362 35785 ft 472 kts 262°
2026-04-15 20:01 42.17872 -101.33133 35778 ft 472 kts 263°
2026-04-15 20:01 42.16800 -101.41847 35783 ft 471 kts 263°
2026-04-15 20:02 42.15721 -101.50596 35786 ft 471 kts 263°
2026-04-15 20:02 42.14641 -101.59287 35787 ft 471 kts 263°
2026-04-15 20:03 42.13548 -101.68021 35777 ft 471 kts 262°
2026-04-15 20:03 42.12445 -101.76759 35786 ft 471 kts 263°
2026-04-15 20:04 42.11346 -101.85440 35784 ft 470 kts 263°
2026-04-15 20:04 42.10235 -101.94148 35788 ft 470 kts 263°
2026-04-15 20:05 42.09123 -102.02817 35791 ft 470 kts 263°
2026-04-15 20:05 42.07996 -102.11532 35790 ft 471 kts 263°
2026-04-15 20:06 42.06873 -102.20177 35789 ft 470 kts 263°
2026-04-15 20:06 42.05737 -102.28867 35790 ft 470 kts 262°
2026-04-15 20:07 42.04591 -102.37573 35793 ft 470 kts 262°
2026-04-15 20:07 42.03447 -102.46211 35799 ft 470 kts 262°
2026-04-15 20:08 42.02293 -102.54876 35813 ft 470 kts 262°
2026-04-15 20:08 42.01128 -102.63571 35826 ft 470 kts 262°
2026-04-15 20:09 41.99965 -102.72207 35832 ft 470 kts 262°
2026-04-15 20:09 41.98793 -102.80843 35821 ft 469 kts 262°
2026-04-15 20:10 41.97610 -102.89511 35826 ft 468 kts 262°
2026-04-15 20:10 41.96432 -102.98106 35824 ft 468 kts 262°
2026-04-15 20:11 41.95247 -103.06697 35818 ft 468 kts 262°
2026-04-15 20:11 41.94051 -103.15314 35785 ft 468 kts 262°
2026-04-15 20:12 41.92851 -103.23905 35811 ft 468 kts 262°
2026-04-15 20:12 41.91645 -103.32494 35819 ft 468 kts 262°
2026-04-15 20:13 41.90633 -103.39653 35840 ft 468 kts 262°
2026-04-15 20:13 41.89572 -103.48318 35843 ft 466 kts 266°
2026-04-15 20:14 41.89133 -103.56969 35849 ft 465 kts 270°
2026-04-15 20:14 41.88860 -103.65660 35850 ft 465 kts 270°
2026-04-15 20:15 41.88583 -103.74310 35845 ft 465 kts 270°
2026-04-15 20:15 41.88294 -103.83025 35831 ft 465 kts 270°
2026-04-15 20:16 41.87998 -103.91696 35815 ft 465 kts 270°
2026-04-15 20:16 41.87696 -104.00380 35807 ft 465 kts 270°
2026-04-15 20:17 41.87386 -104.09089 35822 ft 465 kts 270°
2026-04-15 20:17 41.87071 -104.17750 35821 ft 465 kts 270°
2026-04-15 20:18 41.86748 -104.26442 35812 ft 465 kts 270°
2026-04-15 20:18 41.86420 -104.35084 35810 ft 465 kts 270°
2026-04-15 20:19 41.86083 -104.43783 35809 ft 465 kts 270°
2026-04-15 20:19 41.85743 -104.52420 35803 ft 465 kts 270°
2026-04-15 20:20 41.85395 -104.61081 35813 ft 465 kts 270°
2026-04-15 20:20 41.85038 -104.69779 35828 ft 465 kts 269°
2026-04-15 20:21 41.84678 -104.78412 35833 ft 465 kts 269°
2026-04-15 20:21 41.84309 -104.87111 35838 ft 465 kts 269°
2026-04-15 20:22 41.83932 -104.95741 35835 ft 462 kts 270°
2026-04-15 20:22 41.83557 -105.04314 35806 ft 461 kts 269°
2026-04-15 20:23 41.83171 -105.12936 35818 ft 460 kts 270°
2026-04-15 20:23 41.82788 -105.21514 35822 ft 461 kts 270°
2026-04-15 20:24 41.82194 -105.34353 35826 ft 459 kts 269°
2026-04-15 20:25 41.81783 -105.42866 35823 ft 455 kts 270°
2026-04-15 20:25 41.81381 -105.51393 35839 ft 457 kts 270°
2026-04-15 20:26 41.80965 -105.59906 35834 ft 455 kts 270°
2026-04-15 20:26 41.80547 -105.68369 35836 ft 456 kts 269°
2026-04-15 20:27 41.80117 -105.76873 35839 ft 455 kts 269°
2026-04-15 20:27 41.79682 -105.85340 35846 ft 455 kts 269°
2026-04-15 20:28 41.79247 -105.93782 35847 ft 456 kts 269°
2026-04-15 20:28 41.78797 -106.02278 35843 ft 453 kts 269°
2026-04-15 20:29 41.78352 -106.10711 35855 ft 454 kts 269°
2026-04-15 20:29 41.77892 -106.19179 35854 ft 453 kts 269°
2026-04-15 20:30 41.77431 -106.27630 35863 ft 454 kts 269°
2026-04-15 20:30 41.76962 -106.36057 35855 ft 453 kts 268°
2026-04-15 20:31 41.76494 -106.44390 35871 ft 449 kts 269°
2026-04-15 20:31 41.76015 -106.52843 35875 ft 451 kts 268°
2026-04-15 20:32 41.75530 -106.61167 35874 ft 448 kts 268°
2026-04-15 20:32 41.75007 -106.70148 35868 ft 451 kts 268°
2026-04-15 20:33 41.74515 -106.78528 35887 ft 452 kts 267°
2026-04-15 20:33 41.74006 -106.86950 35878 ft 453 kts 268°
2026-04-15 20:34 41.73493 -106.95384 35952 ft 453 kts 267°
2026-04-15 20:34 41.72976 -107.03767 35974 ft 452 kts 267°
2026-04-15 20:35 41.72452 -107.12197 35993 ft 451 kts 267°
2026-04-15 20:35 41.71928 -107.20522 35989 ft 449 kts 267°
2026-04-15 20:36 41.71400 -107.28844 35985 ft 449 kts 267°
2026-04-15 20:36 41.70861 -107.37204 35964 ft 449 kts 267°
2026-04-15 20:37 41.70320 -107.45518 35946 ft 449 kts 266°
2026-04-15 20:37 41.69770 -107.53889 35925 ft 450 kts 266°
2026-04-15 20:38 41.69215 -107.62196 35905 ft 449 kts 266°
2026-04-15 20:38 41.68653 -107.70538 35896 ft 450 kts 266°
2026-04-15 20:39 41.68085 -107.78916 35886 ft 450 kts 266°
2026-04-15 20:39 41.67513 -107.87227 35896 ft 450 kts 266°
2026-04-15 20:40 41.67027 -107.94204 35901 ft 450 kts 266°
2026-04-15 20:40 41.66442 -108.02542 35902 ft 450 kts 266°
2026-04-15 20:41 41.65851 -108.10867 35890 ft 450 kts 266°
2026-04-15 20:41 41.65154 -108.20597 35897 ft 450 kts 266°
2026-04-15 20:42 41.64647 -108.27591 35891 ft 450 kts 266°
2026-04-15 20:42 41.64040 -108.35906 35887 ft 450 kts 266°
2026-04-15 20:43 41.63421 -108.44289 35893 ft 450 kts 265°
2026-04-15 20:43 41.62804 -108.52562 35895 ft 447 kts 265°
2026-04-15 20:44 41.62179 -108.60849 35897 ft 447 kts 265°
2026-04-15 20:44 41.61551 -108.69105 35897 ft 447 kts 265°
2026-04-15 20:45 41.60917 -108.77367 35953 ft 447 kts 265°
2026-04-15 20:45 41.60274 -108.85652 35970 ft 446 kts 265°
2026-04-15 20:46 41.59628 -108.93878 35992 ft 446 kts 265°
2026-04-15 20:46 41.58634 -109.02086 35987 ft 447 kts 259°
2026-04-15 20:47 41.57007 -109.10098 35991 ft 448 kts 255°
2026-04-15 20:47 41.55151 -109.18022 35986 ft 447 kts 254°
2026-04-15 20:48 41.53272 -109.25982 35966 ft 447 kts 254°
2026-04-15 20:48 41.51402 -109.33878 35946 ft 447 kts 254°
2026-04-15 20:49 41.49518 -109.41805 35927 ft 447 kts 254°
2026-04-15 20:49 41.47643 -109.49675 35891 ft 447 kts 253°
2026-04-15 20:50 41.45753 -109.57578 35884 ft 447 kts 253°
2026-04-15 20:50 41.43848 -109.65507 35888 ft 447 kts 253°
2026-04-15 20:51 41.41946 -109.73401 35880 ft 447 kts 253°
2026-04-15 20:51 41.40046 -109.81258 35879 ft 446 kts 253°
2026-04-15 20:52 41.38117 -109.89214 35880 ft 456 kts 253°
2026-04-15 20:52 41.36148 -109.97304 35894 ft 457 kts 253°
2026-04-15 20:53 41.34192 -110.05314 35927 ft 457 kts 253°
2026-04-15 20:53 41.32223 -110.13345 35961 ft 457 kts 253°
2026-04-15 20:54 41.30238 -110.21416 35995 ft 454 kts 253°
2026-04-15 20:54 41.28273 -110.29378 36008 ft 453 kts 253°
2026-04-15 20:55 41.26306 -110.37324 36014 ft 453 kts 253°
2026-04-15 20:55 41.24319 -110.45322 36005 ft 453 kts 253°
2026-04-15 20:56 41.22346 -110.53240 35992 ft 451 kts 253°
2026-04-15 20:56 41.20360 -110.61179 35976 ft 451 kts 253°
2026-04-15 20:57 41.18376 -110.69082 35954 ft 451 kts 252°
2026-04-15 20:57 41.16389 -110.76975 35979 ft 451 kts 252°
2026-04-15 20:58 41.14406 -110.84831 35983 ft 450 kts 252°
2026-04-15 20:58 41.12415 -110.92685 35994 ft 450 kts 252°
2026-04-15 20:59 41.10409 -111.00570 35996 ft 450 kts 252°
2026-04-15 20:59 41.08400 -111.08441 35989 ft 450 kts 252°
2026-04-15 21:00 41.06393 -111.16287 35970 ft 450 kts 252°
2026-04-15 21:00 41.04380 -111.24129 35962 ft 450 kts 252°
2026-04-15 21:01 41.02343 -111.32033 35943 ft 450 kts 252°
2026-04-15 21:01 41.00314 -111.39875 35934 ft 450 kts 251°
2026-04-15 21:02 40.98284 -111.47702 35929 ft 450 kts 251°
2026-04-15 21:02 40.96248 -111.55528 35914 ft 450 kts 251°
2026-04-15 21:03 40.94193 -111.63399 35921 ft 450 kts 251°
2026-04-15 21:03 40.92142 -111.71227 35923 ft 452 kts 251°
2026-04-15 21:04 40.90070 -111.79116 35945 ft 452 kts 251°
2026-04-15 21:04 40.88009 -111.86941 35944 ft 451 kts 251°
2026-04-15 21:05 40.85925 -111.94812 35953 ft 451 kts 251°
2026-04-15 21:05 40.83570 -112.02461 35952 ft 451 kts 246°
2026-04-15 21:06 40.81003 -112.10012 35951 ft 451 kts 246°
2026-04-15 21:06 40.78418 -112.17592 35930 ft 450 kts 246°
2026-04-15 21:07 40.75832 -112.25146 35939 ft 450 kts 246°
2026-04-15 21:07 40.73257 -112.32642 35952 ft 450 kts 246°
2026-04-15 21:08 40.70661 -112.40181 35958 ft 450 kts 246°
2026-04-15 21:08 40.68078 -112.47663 35953 ft 449 kts 246°
2026-04-15 21:09 40.65474 -112.55188 35874 ft 449 kts 246°
2026-04-15 21:09 40.62876 -112.62668 35869 ft 449 kts 246°
2026-04-15 21:10 40.60280 -112.70125 35874 ft 449 kts 246°
2026-04-15 21:10 40.57664 -112.77621 35873 ft 449 kts 246°
2026-04-15 21:11 40.55063 -112.85062 35871 ft 449 kts 245°
2026-04-15 21:11 40.52425 -112.92578 35884 ft 449 kts 245°
2026-04-15 21:12 40.49810 -113.00011 35893 ft 449 kts 245°
2026-04-15 21:12 40.47168 -113.07501 35898 ft 449 kts 245°
2026-04-15 21:13 40.44546 -113.14915 35902 ft 449 kts 245°
2026-04-15 21:13 40.41915 -113.22336 35896 ft 448 kts 245°
2026-04-15 21:14 40.39272 -113.29776 35891 ft 449 kts 245°
2026-04-15 21:14 40.37938 -113.33523 36022 ft 451 kts 245°
2026-04-15 21:14 40.36623 -113.37212 36335 ft 450 kts 245°
2026-04-15 21:14 40.35294 -113.40935 36719 ft 447 kts 245°
2026-04-15 21:15 40.33977 -113.44618 37238 ft 442 kts 245°
2026-04-15 21:15 40.32674 -113.48262 37662 ft 440 kts 245°
2026-04-15 21:15 40.31388 -113.51851 37955 ft 438 kts 245°
2026-04-15 21:15 40.30081 -113.55493 37778 ft 441 kts 245°
2026-04-15 21:16 40.28767 -113.59150 37501 ft 441 kts 245°
2026-04-15 21:16 40.27456 -113.62793 37227 ft 441 kts 245°
2026-04-15 21:16 40.26117 -113.66367 36961 ft 442 kts 244°
2026-04-15 21:16 40.24719 -113.69965 36697 ft 442 kts 243°
2026-04-15 21:17 40.23311 -113.73561 36424 ft 442 kts 243°
2026-04-15 21:17 40.21922 -113.77107 36198 ft 441 kts 243°
2026-04-15 21:17 40.20520 -113.80685 36016 ft 440 kts 243°
2026-04-15 21:18 40.17721 -113.87835 35912 ft 439 kts 243°
2026-04-15 21:18 40.14941 -113.94926 35890 ft 439 kts 243°
2026-04-15 21:19 40.12141 -114.02057 35896 ft 439 kts 243°
2026-04-15 21:19 40.09343 -114.09170 35895 ft 444 kts 243°
2026-04-15 21:20 40.06496 -114.16390 35909 ft 446 kts 243°
2026-04-15 21:20 40.03658 -114.23567 35908 ft 446 kts 243°
2026-04-15 21:21 40.00804 -114.30766 35919 ft 446 kts 243°
2026-04-15 21:21 39.97960 -114.37927 35917 ft 446 kts 243°
2026-04-15 21:22 39.95094 -114.45127 35916 ft 447 kts 243°
2026-04-15 21:22 39.92218 -114.52330 35917 ft 448 kts 243°
2026-04-15 21:23 39.89323 -114.59568 35923 ft 449 kts 243°
2026-04-15 21:23 39.86431 -114.66776 35928 ft 449 kts 243°
2026-04-15 21:24 39.83541 -114.73965 35930 ft 449 kts 243°
2026-04-15 21:24 39.80633 -114.81181 35930 ft 449 kts 243°
2026-04-15 21:25 39.77736 -114.88351 35927 ft 449 kts 242°
2026-04-15 21:25 39.74821 -114.95551 35930 ft 449 kts 242°
2026-04-15 21:26 39.71907 -115.02730 35924 ft 449 kts 242°
2026-04-15 21:26 39.68993 -115.09892 35925 ft 450 kts 242°
2026-04-15 21:27 39.66055 -115.17097 35928 ft 450 kts 242°
2026-04-15 21:27 39.63118 -115.24280 35928 ft 450 kts 242°
2026-04-15 21:28 39.60188 -115.31433 35925 ft 450 kts 242°
2026-04-15 21:28 39.57234 -115.38625 35924 ft 450 kts 242°
2026-04-15 21:29 39.54296 -115.45763 35927 ft 450 kts 242°
2026-04-15 21:29 39.51343 -115.52922 35922 ft 450 kts 242°
2026-04-15 21:30 39.48873 -115.58896 35919 ft 450 kts 242°
2026-04-15 21:30 39.45416 -115.67238 35910 ft 451 kts 242°
2026-04-15 21:31 39.41445 -115.76792 35919 ft 452 kts 242°
2026-04-15 21:32 39.36953 -115.87561 35920 ft 452 kts 242°
2026-04-15 21:32 39.33969 -115.94696 35925 ft 452 kts 242°
2026-04-15 21:33 39.30983 -116.01814 35927 ft 451 kts 242°
2026-04-15 21:33 39.27995 -116.08926 35925 ft 451 kts 242°
2026-04-15 21:34 39.24985 -116.16077 35935 ft 451 kts 242°
2026-04-15 21:34 39.21990 -116.23173 35935 ft 452 kts 242°
2026-04-15 21:35 39.18966 -116.30317 35943 ft 452 kts 242°
2026-04-15 21:35 39.15953 -116.37422 35950 ft 452 kts 242°
2026-04-15 21:36 39.12919 -116.44564 35954 ft 452 kts 242°
2026-04-15 21:36 39.09905 -116.51638 35964 ft 452 kts 242°
2026-04-15 21:37 39.06877 -116.58730 35956 ft 452 kts 242°
2026-04-15 21:37 39.03828 -116.65854 35968 ft 453 kts 242°
2026-04-15 21:38 39.00790 -116.72938 35967 ft 453 kts 242°
2026-04-15 21:38 38.97751 -116.80009 35966 ft 453 kts 242°
2026-04-15 21:39 38.94680 -116.87137 35978 ft 454 kts 242°
2026-04-15 21:39 38.91626 -116.94207 35978 ft 455 kts 242°
2026-04-15 21:40 38.88535 -117.01347 35979 ft 455 kts 242°
2026-04-15 21:40 38.85457 -117.08441 35995 ft 455 kts 242°
2026-04-15 21:41 38.82362 -117.15560 35989 ft 455 kts 242°
2026-04-15 21:41 38.79270 -117.22652 35995 ft 456 kts 242°
2026-04-15 21:42 38.76165 -117.29760 35993 ft 457 kts 242°
2026-04-15 21:42 38.73062 -117.36850 35984 ft 457 kts 242°
2026-04-15 21:43 38.69952 -117.43941 35987 ft 457 kts 241°
2026-04-15 21:43 38.66818 -117.51065 35985 ft 458 kts 242°
2026-04-15 21:44 38.63693 -117.58156 35986 ft 459 kts 242°
2026-04-15 21:44 38.60546 -117.65283 35976 ft 459 kts 242°
2026-04-15 21:45 38.57408 -117.72372 35962 ft 459 kts 242°
2026-04-15 21:45 38.54246 -117.79499 35964 ft 459 kts 242°
2026-04-15 21:46 38.51103 -117.86567 35952 ft 459 kts 241°
2026-04-15 21:46 38.48434 -117.93938 35950 ft 457 kts 249°
2026-04-15 21:47 38.46297 -118.01615 35952 ft 457 kts 253°
2026-04-15 21:47 38.44517 -118.09408 35953 ft 457 kts 254°
2026-04-15 21:48 38.42739 -118.17196 35960 ft 458 kts 254°
2026-04-15 21:48 38.40931 -118.24987 35968 ft 458 kts 254°
2026-04-15 21:49 38.39112 -118.32750 35972 ft 458 kts 253°
2026-04-15 21:49 38.37269 -118.40561 35979 ft 457 kts 254°
2026-04-15 21:50 38.35439 -118.48290 35991 ft 457 kts 254°
2026-04-15 21:50 38.33596 -118.56051 35997 ft 457 kts 254°
2026-04-15 21:51 38.31743 -118.63823 35988 ft 457 kts 254°
2026-04-15 21:51 38.29915 -118.71455 35982 ft 445 kts 254°
2026-04-15 21:52 38.28101 -118.79017 35981 ft 443 kts 254°
2026-04-15 21:52 38.26296 -118.86521 35975 ft 443 kts 254°
2026-04-15 21:53 38.24491 -118.93999 35980 ft 443 kts 254°
2026-04-15 21:53 38.22664 -119.01536 35986 ft 442 kts 254°
2026-04-15 21:54 38.20855 -119.08983 35993 ft 442 kts 254°
2026-04-15 21:54 38.19031 -119.16465 36014 ft 441 kts 254°
2026-04-15 21:55 38.17206 -119.23930 36014 ft 441 kts 253°
2026-04-15 21:55 38.15382 -119.31368 36037 ft 441 kts 253°
2026-04-15 21:56 38.13555 -119.38793 36069 ft 441 kts 253°
2026-04-15 21:56 38.11708 -119.46278 36068 ft 441 kts 253°
2026-04-15 21:57 38.09868 -119.53709 36085 ft 441 kts 253°
2026-04-15 21:57 38.08013 -119.61165 36093 ft 446 kts 254°
2026-04-15 21:58 38.06138 -119.68703 36098 ft 446 kts 254°
2026-04-15 21:58 38.04255 -119.76241 36102 ft 446 kts 254°
2026-04-15 21:59 38.02386 -119.83703 35663 ft 444 kts 254°
2026-04-15 21:59 38.01441 -119.87458 34984 ft 445 kts 254°
2026-04-15 21:59 38.00496 -119.91212 34325 ft 446 kts 254°
2026-04-15 21:59 37.99561 -119.94925 33598 ft 448 kts 254°
2026-04-15 22:00 37.98604 -119.98722 32812 ft 449 kts 254°
2026-04-15 22:00 37.97647 -120.02515 32045 ft 451 kts 254°
2026-04-15 22:00 37.96694 -120.06284 31317 ft 452 kts 254°
2026-04-15 22:00 37.95726 -120.10108 30530 ft 454 kts 253°
2026-04-15 22:01 37.94755 -120.13938 29675 ft 456 kts 253°
2026-04-15 22:01 37.93791 -120.17733 29054 ft 452 kts 253°
2026-04-15 22:01 37.92823 -120.21536 28629 ft 452 kts 253°
2026-04-15 22:01 37.91857 -120.25321 28074 ft 449 kts 253°
2026-04-15 22:02 37.90899 -120.29071 27610 ft 443 kts 253°
2026-04-15 22:02 37.89947 -120.32793 27063 ft 439 kts 253°
2026-04-15 22:02 37.89016 -120.36423 26562 ft 435 kts 253°
2026-04-15 22:02 37.88084 -120.40060 26081 ft 430 kts 253°
2026-04-15 22:03 37.87161 -120.43650 25607 ft 425 kts 253°
2026-04-15 22:03 37.86257 -120.47161 25152 ft 421 kts 252°
2026-04-15 22:03 37.85350 -120.50684 24676 ft 417 kts 252°
2026-04-15 22:03 37.84458 -120.54139 24224 ft 413 kts 252°
2026-04-15 22:04 37.83567 -120.57589 23770 ft 410 kts 252°
2026-04-15 22:04 37.82682 -120.61010 23242 ft 406 kts 252°
2026-04-15 22:04 37.81800 -120.64410 22751 ft 402 kts 252°
2026-04-15 22:04 37.80928 -120.67770 22263 ft 398 kts 252°
2026-04-15 22:05 37.80074 -120.71054 21796 ft 395 kts 252°
2026-04-15 22:05 37.79219 -120.74339 21326 ft 391 kts 252°
2026-04-15 22:05 37.78363 -120.77625 20864 ft 388 kts 252°
2026-04-15 22:05 37.77517 -120.80869 20395 ft 386 kts 252°
2026-04-15 22:06 37.76685 -120.84055 19937 ft 383 kts 252°
2026-04-15 22:06 37.75846 -120.87263 19469 ft 381 kts 252°
2026-04-15 22:06 37.75011 -120.90454 19007 ft 379 kts 252°
2026-04-15 22:06 37.74191 -120.93583 18561 ft 378 kts 252°
2026-04-15 22:07 37.73360 -120.96749 18038 ft 376 kts 252°
2026-04-15 22:07 37.72544 -120.99854 17554 ft 374 kts 252°
2026-04-15 22:07 37.71733 -121.02976 17093 ft 370 kts 252°
2026-04-15 22:07 37.70940 -121.06069 16648 ft 365 kts 252°
2026-04-15 22:08 37.70171 -121.09062 16255 ft 359 kts 252°
2026-04-15 22:08 37.69391 -121.12053 15849 ft 353 kts 252°
2026-04-15 22:08 37.68615 -121.14992 15464 ft 348 kts 252°
2026-04-15 22:08 37.67848 -121.17866 15121 ft 342 kts 252°
2026-04-15 22:09 37.67096 -121.20653 14784 ft 336 kts 251°
2026-04-15 22:09 37.66334 -121.23438 14434 ft 331 kts 251°
2026-04-15 22:09 37.65573 -121.26179 13989 ft 329 kts 251°
2026-04-15 22:09 37.64802 -121.28911 13484 ft 328 kts 251°
2026-04-15 22:10 37.64039 -121.31597 13003 ft 326 kts 251°
2026-04-15 22:10 37.63328 -121.34331 12500 ft 325 kts 253°
2026-04-15 22:10 37.62697 -121.37031 12007 ft 324 kts 255°
2026-04-15 22:10 37.62074 -121.39760 11588 ft 321 kts 255°
2026-04-15 22:11 37.61425 -121.42449 11169 ft 318 kts 253°
2026-04-15 22:11 37.60727 -121.45090 10756 ft 316 kts 252°
2026-04-15 22:11 37.59992 -121.47709 10361 ft 313 kts 251°
2026-04-15 22:11 37.59258 -121.50222 10219 ft 301 kts 251°
2026-04-15 22:12 37.58533 -121.52650 10097 ft 290 kts 250°
2026-04-15 22:12 37.57820 -121.54990 9950 ft 279 kts 251°
2026-04-15 22:12 37.57197 -121.57262 9787 ft 269 kts 254°
2026-04-15 22:12 37.56642 -121.59460 9644 ft 259 kts 254°
2026-04-15 22:13 37.56116 -121.61591 9504 ft 249 kts 255°
2026-04-15 22:13 37.55592 -121.63644 9364 ft 240 kts 252°
2026-04-15 22:13 37.55039 -121.65576 9172 ft 233 kts 252°
2026-04-15 22:13 37.54491 -121.67486 8941 ft 227 kts 252°
2026-04-15 22:14 37.53964 -121.69337 8814 ft 222 kts 253°
2026-04-15 22:14 37.53465 -121.71143 8676 ft 221 kts 253°
2026-04-15 22:14 37.52985 -121.72998 8510 ft 219 kts 254°
2026-04-15 22:14 37.52510 -121.74834 8336 ft 222 kts 253°
2026-04-15 22:15 37.52013 -121.76667 8188 ft 223 kts 252°
2026-04-15 22:15 37.51502 -121.78490 7961 ft 218 kts 253°
2026-04-15 22:15 37.51003 -121.80293 7661 ft 216 kts 253°
2026-04-15 22:15 37.50509 -121.82092 7356 ft 219 kts 253°
2026-04-15 22:16 37.50013 -121.83924 7158 ft 218 kts 252°
2026-04-15 22:16 37.49538 -121.85726 7021 ft 218 kts 255°
2026-04-15 22:16 37.49178 -121.87561 6961 ft 213 kts 264°
2026-04-15 22:16 37.49140 -121.89463 6885 ft 223 kts 274°
2026-04-15 22:17 37.49214 -121.90785 6795 ft 222 kts 275°
2026-04-15 22:17 37.49361 -121.93310 6292 ft 215 kts 276°
2026-04-15 22:17 37.49448 -121.94548 6049 ft 211 kts 275°
2026-04-15 22:17 37.49558 -121.96394 5783 ft 209 kts 275°
2026-04-15 22:18 37.49679 -121.98219 5776 ft 206 kts 275°
2026-04-15 22:18 37.49806 -121.99994 5681 ft 205 kts 275°
2026-04-15 22:18 37.49910 -122.01801 5559 ft 206 kts 272°
2026-04-15 22:18 37.49955 -122.03591 5420 ft 206 kts 271°
2026-04-15 22:19 37.49974 -122.05419 5299 ft 208 kts 271°
2026-04-15 22:19 37.50124 -122.07247 5217 ft 206 kts 281°
2026-04-15 22:19 37.50437 -122.08936 5227 ft 189 kts 286°
2026-04-15 22:19 37.50852 -122.10474 5018 ft 184 kts 294°
2026-04-15 22:20 37.51406 -122.11900 4747 ft 182 kts 297°
2026-04-15 22:20 37.51992 -122.13303 4412 ft 181 kts 299°
2026-04-15 22:20 37.52590 -122.14692 4081 ft 177 kts 299°
2026-04-15 22:20 37.53169 -122.16056 3795 ft 174 kts 299°
2026-04-15 22:21 37.53736 -122.17398 3524 ft 171 kts 300°
2026-04-15 22:21 37.54294 -122.18720 3332 ft 171 kts 299°
2026-04-15 22:21 37.54826 -122.20029 3112 ft 170 kts 298°
2026-04-15 22:21 37.55365 -122.21366 2854 ft 170 kts 298°
2026-04-15 22:22 37.55903 -122.22685 2591 ft 168 kts 295°
2026-04-15 22:22 37.56320 -122.24092 2331 ft 172 kts 289°
2026-04-15 22:22 37.56818 -122.25415 2124 ft 161 kts 297°
2026-04-15 22:22 37.57331 -122.26606 1886 ft 152 kts 296°
2026-04-15 22:23 37.57804 -122.27765 1619 ft 145 kts 294°
2026-04-15 22:23 37.58247 -122.28896 1345 ft 141 kts 293°
2026-04-15 22:23 37.58690 -122.30031 1126 ft 144 kts 296°
2026-04-15 22:23 37.59184 -122.31130 942 ft 143 kts 296°
2026-04-15 22:24 37.59656 -122.32237 695 ft 142 kts 295°
2026-04-15 22:24 37.60104 -122.33327 489 ft 141 kts 294°
2026-04-15 22:24 37.60572 -122.34410 316 ft 136 kts 291°
2026-04-15 22:24 37.60990 -122.35431 156 ft 129 kts 295°
2026-04-15 22:25 37.61417 -122.36417 34 ft 122 kts 294°
2026-04-15 22:25 37.61703 -122.37108 30 ft 51 kts 297°
2026-04-15 22:25 37.61815 -122.37378 30 ft 32 kts 298°
2026-04-15 22:25 37.61918 -122.37625 30 ft 31 kts 296°
2026-04-15 22:26 37.62022 -122.37861 30 ft 31 kts 297°
2026-04-15 22:26 37.62118 -122.38099 30 ft 24 kts 297°
2026-04-15 22:26 37.62144 -122.38210 30 ft 13 kts 245°
2026-04-15 22:26 37.62089 -122.38289 30 ft 12 kts 283°
2026-04-15 22:27 37.62118 -122.38381 30 ft 11 kts 290°
2026-04-15 22:27 37.62155 -122.38481 30 ft 14 kts 298°
2026-04-15 22:27 37.62205 -122.38598 30 ft 16 kts 298°
2026-04-15 22:27 37.62264 -122.38739 30 ft 20 kts 297°
2026-04-15 22:28 37.62324 -122.38885 30 ft 7 kts 297°
2026-04-15 22:28 37.62324 -122.38951 30 ft 9 kts 236°
2026-04-15 22:28 37.62260 -122.39011 30 ft 13 kts 227°
2026-04-15 22:28 37.62199 -122.39116 30 ft 17 kts 216°
2026-04-15 22:29 37.62104 -122.39189 30 ft 12 kts 209°
2026-04-15 22:29 37.62055 -122.39222 30 ft 3 kts 208°
2026-04-15 22:29 37.62053 -122.39223 30 ft 0 kts 208°
2026-04-15 22:30 37.62045 -122.39229 30 ft 3 kts 208°
2026-04-15 22:30 37.62014 -122.39245 30 ft 6 kts 189°
2026-04-15 22:30 37.61969 -122.39216 30 ft 10 kts 130°
2026-04-15 22:31 37.61931 -122.39137 30 ft 7 kts 118°
2026-04-15 22:31 37.61909 -122.39087 30 ft 6 kts 132°
2026-04-15 22:31 37.61869 -122.39084 30 ft 0 kts 210°
2026-04-15 22:31 37.61863 -122.39089 30 ft 3 kts 208°
2026-04-15 22:32 37.61853 -122.39095 30 ft 1 kts 208°
2026-04-15 22:32 37.61848 -122.39099 30 ft 1 kts 207°
2026-04-15 22:32 37.61842 -122.39103 30 ft 0 kts 207°